FW6434 Weather Reports


time (UTC)temp
C
wind
direction
speed
KPH
gust
KPH
rain 1hr
cm
rain 24hr
cm
rain mn
cm
humidity
%
barometer
mb
20260903190714 16 199 0.0 0.0 0.00 0.00 0.00 83 1017.2
20260903190354 16 199 0.0 0.0 0.00 0.00 0.00 83 1016.9
20260903190239 16 199 0.0 0.0 0.00 0.00 0.00 83 1016.9
20260903190154 16 199 0.0 0.0 0.00 0.00 0.00 83 1017.0
20260903190129 16 199 0.0 0.0 0.00 0.00 0.00 83 1017.1
20260903190113 16 199 0.0 0.0 0.00 0.00 0.00 83 1017.1
20260903185738 16 199 0.0 0.0 0.00 0.00 0.00 83 1017.0
20260903185654 16 199 0.0 0.0 0.00 0.00 0.00 83 1016.9
20260903185623 16 199 0.0 0.0 0.00 0.00 0.00 83 1017.2
20260903185535 16 199 0.0 0.0 0.00 0.00 0.00 83 1017.3
20260903185519 16 199 0.0 0.0 0.00 0.00 0.00 83 1017.0
20260903185238 16 199 0.0 0.0 0.00 0.00 0.00 82 1016.9
20260903185155 16 199 0.0 0.0 0.00 0.00 0.00 83 1017.1
20260903185054 16 199 0.0 0.0 0.00 0.00 0.00 82 1017.0
20260903184954 16 199 0.0 0.0 0.00 0.00 0.00 83 1017.0
20260903184854 16 199 0.0 0.0 0.00 0.00 0.00 82 1017.0
20260903184754 16 199 0.0 0.0 0.00 0.00 0.00 83 1017.0
20260903184738 16 199 0.0 0.0 0.00 0.00 0.00 83 1017.2
20260903184654 16 198 0.0 0.0 0.00 0.00 0.00 82 1017.2
20260903184554 16 198 0.0 0.0 0.00 0.00 0.00 83 1016.9
20260903184526 17 196 0.0 0.0 0.00 0.00 0.00 80 1017.2
20260903184518 17 198 0.0 0.0 0.00 0.00 0.00 82 1017.1
20260903184503 17 198 0.0 0.0 0.00 0.00 0.00 82 1017.2
20260903184434 16 198 0.0 0.0 0.00 0.00 0.00 82 1017.0
20260903184423 16 198 0.0 0.0 0.00 0.00 0.00 81 1017.0
20260903184408 17 198 0.0 0.0 0.00 0.00 0.00 81 1017.1
20260903184352 17 198 0.0 0.0 0.00 0.00 0.00 81 1017.1
20260903184336 17 198 0.0 0.0 0.00 0.00 0.00 81 1017.2
20260903184102 17 196 0.0 0.0 0.00 0.00 0.00 81 1017.1
20260903183832 17 195 0.0 0.0 0.00 0.00 0.00 81 1017.4
20260903183817 17 195 0.0 0.0 0.00 0.00 0.00 81 1017.3
20260903183801 17 195 0.0 0.0 0.00 0.00 0.00 81 1017.3
20260903183726 17 196 0.0 0.0 0.00 0.00 0.00 81 1017.1
20260903183715 17 195 0.0 0.0 0.00 0.00 0.00 81 1017.2
20260903183659 17 195 0.0 0.0 0.00 0.00 0.00 81 1017.4
20260903183643 17 197 0.0 0.0 0.00 0.00 0.00 81 1017.1
20260903183627 17 197 0.0 0.0 0.00 0.00 0.00 81 1017.1
20260903183611 17 196 0.0 0.0 0.00 0.00 0.00 80 1017.2
20260903183342 17 196 0.0 0.0 0.00 0.00 0.00 80 1017.3
20260903182408 17 268 0.0 0.0 0.00 0.00 0.00 80 1017.2
20260903182100 17 196 0.0 0.0 0.00 0.00 0.00 80 1017.2
20260903182038 17 196 0.0 0.0 0.00 0.00 0.00 80 1017.1
20260903182015 17 196 0.0 0.0 0.00 0.00 0.00 80 1017.2
20260903181738 17 196 0.0 0.0 0.00 0.00 0.00 80 1017.1
20260903181703 17 196 0.0 0.0 0.00 0.00 0.00 79 1016.9
20260903181555 17 196 0.0 0.0 0.00 0.00 0.00 79 1017.0
20260903181454 18 196 0.0 0.0 0.00 0.00 0.00 79 1017.1
20260903181355 18 196 0.0 0.0 0.00 0.00 0.00 79 1017.1
20260903181240 18 196 0.0 0.0 0.00 0.00 0.00 79 1017.0
20260903181230 18 196 0.0 0.0 0.00 0.00 0.00 79 1017.0
20260903181214 18 196 0.0 0.0 0.00 0.00 0.00 79 1017.0
20260903180855 18 196 0.0 0.0 0.00 0.00 0.00 79 1017.0
20260903180758 18 197 0.0 0.0 0.00 0.00 0.00 74 1017.2
20260903180740 18 196 0.0 0.0 0.00 0.00 0.00 78 1017.2
20260903180733 18 197 0.0 0.0 0.00 0.00 0.00 76 1017.1
20260903180725 18 196 0.0 0.0 0.00 0.00 0.00 78 1017.2
20260903180710 18 197 0.0 0.0 0.00 0.00 0.00 78 1017.2
20260903180653 18 196 0.0 0.0 0.00 0.00 0.00 77 1017.0
20260903180637 18 197 0.0 0.0 0.00 0.00 0.00 77 1017.1
20260903180620 18 197 0.0 0.0 0.00 0.00 0.00 76 1017.1
20260903180354 18 197 0.0 0.0 0.00 0.00 0.00 76 1017.0
20260903180130 18 197 0.0 0.0 0.00 0.00 0.00 75 1017.0
20260903180114 18 197 0.0 0.0 0.00 0.00 0.00 75 1016.9
20260903180058 18 199 0.0 0.0 0.00 0.00 0.00 75 1017.1
20260903180043 18 197 0.0 0.0 0.00 0.00 0.00 74 1017.2
20260903175814 18 197 0.0 0.0 0.00 0.00 0.00 74 1016.9
20260903175529 18 197 0.0 0.0 0.00 0.00 0.00 74 1017.0
20260903175514 18 197 0.0 0.0 0.00 0.00 0.00 74 1017.2
20260903175239 18 197 0.0 0.0 0.00 0.00 0.00 74 1017.2
20260903175218 18 197 0.0 0.0 0.00 0.00 0.00 75 1017.0
20260903175213 18 197 0.0 0.0 0.00 0.00 0.00 74 1017.1
20260903175206 18 197 0.0 0.0 0.00 0.00 0.00 75 1016.9
20260903175149 18 197 0.0 0.0 0.00 0.00 0.00 75 1017.0
20260903175116 18 197 0.0 0.0 0.00 0.00 0.00 75 1016.9
20260903175054 18 197 0.0 0.0 0.00 0.00 0.00 75 1016.9
20260903175037 18 197 0.0 0.0 0.00 0.00 0.00 75 1017.0
20260903174808 18 197 0.0 0.0 0.00 0.00 0.00 76 1017.1
20260903174752 18 197 0.0 0.0 0.00 0.00 0.00 76 1017.3
20260903174735 18 197 0.0 0.0 0.00 0.00 0.00 75 1017.0
20260903174720 18 197 0.0 0.0 0.00 0.00 0.00 75 1017.0
20260903174652 18 197 0.0 0.0 0.00 0.00 0.00 75 1017.0
20260903174200 18 197 0.0 0.0 0.00 0.00 0.00 74 1017.0
20260903174144 18 196 0.0 0.0 0.00 0.00 0.00 74 1017.1
20260903174128 18 197 0.0 0.0 0.00 0.00 0.00 74 1017.1
20260903173639 19 198 0.0 0.0 0.00 0.00 0.00 75 1017.0
20260903173629 18 197 0.0 0.0 0.00 0.00 0.00 74 1016.8
20260903173613 18 196 0.0 0.0 0.00 0.00 0.00 74 1017.0
20260903173555 18 196 0.0 0.0 0.00 0.00 0.00 74 1016.9
20260903173540 19 197 0.0 0.0 0.00 0.00 0.00 74 1017.0
20260903173528 19 197 0.0 0.0 0.00 0.00 0.00 75 1017.0
20260903173518 19 197 0.0 0.0 0.00 0.00 0.00 75 1017.0
20260903173502 19 196 0.0 0.0 0.00 0.00 0.00 75 1016.9
20260903173445 19 196 0.0 0.0 0.00 0.00 0.00 75 1017.1
20260903173429 19 196 0.0 0.0 0.00 0.00 0.00 75 1017.0
20260903173155 19 196 0.0 0.0 0.00 0.00 0.00 75 1017.1
20260903173145 19 196 0.0 0.0 0.00 0.00 0.00 75 1017.1
20260903172642 19 196 0.0 0.0 0.00 0.00 0.00 75 1017.1
20260903172625 19 196 0.0 0.0 0.00 0.00 0.00 75 1017.0
20260903172056 19 195 0.0 0.0 0.00 0.00 0.00 74 1017.0
20260903172044 20 194 0.0 0.0 0.00 0.00 0.00 73 1016.9
20260903172033 20 194 0.0 0.0 0.00 0.00 0.00 74 1017.0
20260903172018 20 194 0.0 0.0 0.00 0.00 0.00 74 1016.9
20260903172001 20 194 0.0 0.0 0.00 0.00 0.00 73 1016.8
20260903171738 20 194 0.0 0.0 0.00 0.00 0.00 73 1016.8
20260903171727 20 194 0.0 0.0 0.00 0.00 0.00 73 1016.9
20260903171712 20 194 0.0 0.0 0.00 0.00 0.00 73 1017.1
20260903171651 20 194 0.0 0.0 0.00 0.00 0.00 73 1016.8
20260903171635 20 194 0.0 0.0 0.00 0.00 0.00 72 1017.0
20260903171619 20 194 0.0 0.0 0.00 0.00 0.00 73 1016.9
20260903171352 20 194 0.0 0.0 0.00 0.00 0.00 72 1017.1
20260903171335 20 194 0.0 0.0 0.00 0.00 0.00 73 1017.0
20260903170741 20 107 0.0 0.0 0.00 0.00 0.00 73 1017.1
20260903170641 20 192 0.0 0.0 0.00 0.00 0.00 72 1017.0
20260903170541 20 195 0.0 0.0 0.00 0.00 0.00 72 1016.9
20260903170452 20 192 0.0 0.0 0.00 0.00 0.00 73 1016.9
20260903170436 20 196 0.0 0.0 0.00 0.00 0.00 72 1016.8
20260903170413 20 199 0.0 0.0 0.00 0.00 0.00 73 1017.0
20260903170357 20 196 0.0 0.0 0.00 0.00 0.00 72 1016.9
20260903170341 20 192 0.0 0.0 0.00 0.00 0.00 73 1016.9
20260903170105 20 196 0.0 0.0 0.00 0.00 0.00 72 1017.1
20260903170039 20 194 0.0 0.0 0.00 0.00 0.00 73 1016.9
20260903170022 20 195 0.0 0.0 0.00 0.00 0.00 72 1017.0
20260903170006 20 198 0.0 0.0 0.00 0.00 0.00 72 1017.1
20260903165501 20 195 0.0 0.0 0.00 0.00 0.00 72 1016.9
20260903164918 20 194 0.0 0.0 0.00 0.00 0.00 71 1017.0
20260903164819 20 196 0.0 0.0 0.00 0.00 0.00 71 1016.8
20260903164716 20 196 0.0 0.0 0.00 0.00 0.00 71 1016.8
20260903164318 20 197 0.0 0.0 0.00 0.00 0.00 71 1017.1
20260903164301 20 195 0.0 0.0 0.00 0.00 0.00 70 1016.9
20260903163939 20 195 0.0 0.0 0.00 0.00 0.00 70 1016.9
20260903163847 20 192 0.0 0.0 0.00 0.00 0.00 69 1016.9
20260903163842 20 194 0.0 0.0 0.00 0.00 0.00 70 1017.0
20260903163817 20 194 0.0 0.0 0.00 0.00 0.00 69 1017.0
20260903163801 20 188 0.0 0.0 0.00 0.00 0.00 69 1016.8
20260903163744 20 194 0.0 0.0 0.00 0.00 0.00 69 1017.0
20260903163729 20 192 0.0 0.0 0.00 0.00 0.00 69 1016.8
20260903163451 20 192 0.0 0.0 0.00 0.00 0.00 69 1016.9
20260903163140 20 187 0.0 0.0 0.00 0.00 0.00 69 1016.8
20260903163039 21 188 0.0 0.0 0.00 0.00 0.00 69 1016.6
20260903162935 21 196 0.0 0.0 0.00 0.00 0.00 69 1016.8
20260903162913 21 198 0.0 0.0 0.00 0.00 0.00 69 1016.9
20260903162848 21 199 0.0 0.0 0.00 0.00 0.00 69 1016.8
20260903162832 21 199 0.0 0.0 0.00 0.00 0.00 68 1016.9
20260903162815 21 191 0.0 1.6 0.00 0.00 0.00 68 1016.6
20260903162759 21 191 0.0 1.6 0.00 0.00 0.00 68 1016.6
20260903162743 21 190 0.0 1.6 0.00 0.00 0.00 68 1016.7
20260903162516 21 192 0.0 1.6 0.00 0.00 0.00 68 1016.6
20260903161934 21 191 0.0 1.6 0.00 0.00 0.00 68 1016.8
20260903161838 21 187 0.0 1.6 0.00 0.00 0.00 68 1016.9
20260903161813 21 186 0.0 1.6 0.00 0.00 0.00 67 1016.9
20260903161756 21 196 0.0 1.6 0.00 0.00 0.00 67 1017.0
20260903161446 21 203 0.0 1.6 0.00 0.00 0.00 66 1016.7
20260903161439 21 203 0.0 1.6 0.00 0.00 0.00 67 1016.8
20260903161422 21 200 0.0 1.6 0.00 0.00 0.00 67 1016.9
20260903161359 21 195 0.0 1.6 0.00 0.00 0.00 67 1016.7
20260903161342 21 193 0.0 1.6 0.00 0.00 0.00 67 1016.7
20260903161118 21 190 0.0 1.6 0.00 0.00 0.00 67 1016.7
20260903161103 21 192 0.0 1.6 0.00 0.00 0.00 67 1017.0
20260903160818 21 195 0.0 1.6 0.00 0.00 0.00 67 1016.7
20260903160801 21 217 1.6 1.6 0.00 0.00 0.00 66 1017.0
20260903160744 21 194 0.0 1.6 0.00 0.00 0.00 67 1016.9
20260903160723 21 194 0.0 1.6 0.00 0.00 0.00 67 1016.8
20260903160440 21 194 0.0 1.6 0.00 0.00 0.00 67 1016.9
20260903160422 21 190 0.0 1.6 0.00 0.00 0.00 67 1016.7
20260903160147 21 149 0.0 1.6 0.00 0.00 0.00 67 1016.6
20260903160130 21 197 0.0 1.6 0.00 0.00 0.00 66 1016.8
20260903160106 21 203 0.0 1.6 0.00 0.00 0.00 66 1016.7
20260903155535 21 202 0.0 1.6 0.00 0.00 0.00 66 1016.9
20260903155435 21 202 0.0 1.6 0.00 0.00 0.00 65 1016.7
20260903155336 21 187 0.0 1.6 0.00 0.00 0.00 65 1016.9
20260903155235 21 193 0.0 1.6 0.00 0.00 0.00 65 1016.9
20260903155136 21 192 0.0 1.6 0.00 0.00 0.00 66 1016.9
20260903155035 21 176 0.0 1.6 0.00 0.00 0.00 65 1016.7
20260903154935 21 192 0.0 1.6 0.00 0.00 0.00 66 1016.9
20260903154835 21 188 0.0 1.6 0.00 0.00 0.00 65 1016.8
20260903154811 21 196 0.0 1.6 0.00 0.00 0.00 66 1017.0
20260903154755 21 213 0.0 1.6 0.00 0.00 0.00 66 1016.7
20260903154435 21 193 0.0 1.6 0.00 0.00 0.00 66 1016.9
20260903154335 21 192 0.0 1.6 0.00 0.00 0.00 66 1016.9
20260903154236 21 192 0.0 1.6 0.00 0.00 0.00 66 1016.9
20260903154136 21 189 0.0 1.6 0.00 0.00 0.00 66 1016.8
20260903154040 21 171 1.6 1.6 0.00 0.00 0.00 66 1016.8
20260903154023 21 181 0.0 1.6 0.00 0.00 0.00 65 1016.6
20260903154006 21 195 0.0 1.6 0.00 0.00 0.00 65 1017.0
20260903153736 21 199 0.0 1.6 0.00 0.00 0.00 65 1017.1
20260903153636 21 195 0.0 1.6 0.00 0.00 0.00 65 1016.9
20260903153537 21 195 0.0 1.6 0.00 0.00 0.00 65 1017.1
20260903153435 21 193 0.0 3.2 0.00 0.00 0.00 65 1016.8
20260903153335 21 191 0.0 3.2 0.00 0.00 0.00 65 1017.0
20260903153235 21 192 0.0 3.2 0.00 0.00 0.00 66 1016.8
20260903153135 21 192 0.0 3.2 0.00 0.00 0.00 65 1017.0
20260903153036 21 192 0.0 3.2 0.00 0.00 0.00 66 1017.0
20260903152936 21 192 0.0 3.2 0.00 0.00 0.00 66 1017.1
20260903152911 22 196 0.0 1.6 0.00 0.00 0.00 64 1017.0
20260903152906 22 194 0.0 1.6 0.00 0.00 0.00 66 1016.9
20260903152859 22 198 0.0 4.8 0.00 0.00 0.00 65 1016.9
20260903152855 22 200 0.0 4.8 0.00 0.00 0.00 64 1016.9
20260903152847 21 187 0.0 3.2 0.00 0.00 0.00 66 1016.9
20260903152822 21 200 0.0 3.2 0.00 0.00 0.00 66 1017.0
20260903152805 21 195 0.0 3.2 0.00 0.00 0.00 65 1017.2
20260903152750 21 188 0.0 3.2 0.00 0.00 0.00 65 1016.9
20260903152734 22 192 0.0 3.2 0.00 0.00 0.00 65 1017.0
20260903152246 22 191 0.0 3.2 0.00 0.00 0.00 65 1016.9
20260903152231 22 188 0.0 3.2 0.00 0.00 0.00 66 1017.1
20260903152215 22 193 0.0 3.2 0.00 0.00 0.00 66 1017.1
20260903151939 22 193 0.0 1.6 0.00 0.00 0.00 66 1017.2
20260903151915 22 190 0.0 1.6 0.00 0.00 0.00 65 1016.9
20260903151651 22 191 0.0 3.2 0.00 0.00 0.00 64 1017.1
20260903151645 22 194 0.0 1.6 0.00 0.00 0.00 63 1017.2
20260903151640 22 196 0.0 1.6 0.00 0.00 0.00 65 1016.8
20260903151624 22 210 0.0 1.6 0.00 0.00 0.00 65 1017.0
20260903151608 22 193 0.0 1.6 0.00 0.00 0.00 65 1016.8
20260903151553 22 190 0.0 1.6 0.00 0.00 0.00 65 1016.9
20260903151530 22 188 0.0 1.6 0.00 0.00 0.00 65 1017.1
20260903151034 22 152 1.6 1.6 0.00 0.00 0.00 65 1016.9
20260903151018 22 164 1.6 1.6 0.00 0.00 0.00 65 1017.1
20260903150954 22 194 0.0 1.6 0.00 0.00 0.00 66 1016.9
20260903150938 22 204 0.0 1.6 0.00 0.00 0.00 66 1017.0
20260903150917 22 198 0.0 1.6 0.00 0.00 0.00 66 1017.1
20260903150641 22 198 0.0 1.6 0.00 0.00 0.00 66 1016.9
20260903150619 22 194 0.0 1.6 0.00 0.00 0.00 66 1016.9
20260903150351 22 194 0.0 1.6 0.00 0.00 0.00 66 1016.8
20260903150335 22 193 0.0 1.6 0.00 0.00 0.00 66 1017.0
20260903150320 22 196 0.0 1.6 0.00 0.00 0.00 66 1017.0
20260903150303 22 183 0.0 1.6 0.00 0.00 0.00 66 1016.8
20260903150239 22 179 0.0 1.6 0.00 0.00 0.00 66 1017.2
20260903150222 22 192 0.0 1.6 0.00 0.00 0.00 67 1017.0
20260903150206 22 194 0.0 1.6 0.00 0.00 0.00 66 1017.0
20260903150150 22 193 0.0 1.6 0.00 0.00 0.00 66 1016.9
20260903145905 22 118 0.0 1.6 0.00 0.00 0.00 67 1017.0
20260903145849 22 193 0.0 1.6 0.00 0.00 0.00 66 1016.9
20260903145833 22 192 0.0 4.8 0.00 0.00 0.00 66 1017.1
20260903145817 22 168 0.0 4.8 0.00 0.00 0.00 66 1016.8
20260903145801 22 201 0.0 4.8 0.00 0.00 0.00 66 1016.9
20260903145307 22 160 0.0 4.8 0.00 0.00 0.00 66 1017.2
20260903145252 22 199 0.0 4.8 0.00 0.00 0.00 65 1017.1
20260903145235 22 196 0.0 4.8 0.00 0.00 0.00 65 1016.9
20260903145219 22 202 0.0 4.8 0.00 0.00 0.00 65 1016.9
20260903145201 22 200 0.0 4.8 0.00 0.00 0.00 64 1016.9
20260903144936 22 202 0.0 4.8 0.00 0.00 0.00 64 1017.2
20260903144919 22 196 0.0 1.6 0.00 0.00 0.00 64 1017.0
20260903144643 22 194 0.0 1.6 0.00 0.00 0.00 64 1017.3
20260903144624 22 196 0.0 1.6 0.00 0.00 0.00 64 1017.0
20260903144359 22 203 0.0 3.2 0.00 0.00 0.00 64 1017.1
20260903144343 22 209 0.0 3.2 0.00 0.00 0.00 64 1017.1
20260903144326 22 197 0.0 3.2 0.00 0.00 0.00 64 1017.2
20260903144310 22 192 0.0 3.2 0.00 0.00 0.00 64 1017.0
20260903144253 22 191 0.0 3.2 0.00 0.00 0.00 64 1017.1
20260903143808 22 201 0.0 3.2 0.00 0.00 0.00 64 1016.8
20260903143530 22 199 0.0 3.2 0.00 0.00 0.00 64 1017.0
20260903143506 22 204 0.0 3.2 0.00 0.00 0.00 64 1017.1
20260903143451 22 198 0.0 3.2 0.00 0.00 0.00 64 1017.1
20260903143435 22 124 0.0 3.2 0.00 0.00 0.00 64 1016.9
20260903143159 22 175 0.0 1.6 0.00 0.00 0.00 64 1017.1
20260903143137 22 196 0.0 1.6 0.00 0.00 0.00 64 1017.2
20260903142901 22 189 0.0 1.6 0.00 0.00 0.00 63 1017.1
20260903142845 22 195 0.0 1.6 0.00 0.00 0.00 64 1017.2
20260903142830 22 200 0.0 3.2 0.00 0.00 0.00 63 1017.1
20260903142602 22 196 0.0 3.2 0.00 0.00 0.00 64 1017.2
20260903142545 22 194 0.0 3.2 0.00 0.00 0.00 64 1017.1
20260903142310 22 181 0.0 3.2 0.00 0.00 0.00 64 1017.5
20260903141823 22 191 0.0 3.2 0.00 0.00 0.00 65 1017.5
20260903141806 22 159 0.0 3.2 0.00 0.00 0.00 64 1017.4
20260903141529 22 191 0.0 3.2 0.00 0.00 0.00 64 1017.1
20260903141248 22 194 0.0 1.6 0.00 0.00 0.00 63 1017.2
20260903141021 22 196 0.0 1.6 0.00 0.00 0.00 63 1017.4
20260903140746 22 184 0.0 1.6 0.00 0.00 0.00 63 1017.3
20260903140259 22 195 0.0 3.2 0.00 0.00 0.00 63 1017.3
20260903140243 22 208 0.0 3.2 0.00 0.00 0.00 62 1017.1
20260903135923 22 193 0.0 3.2 0.00 0.00 0.00 62 1017.0
20260903135823 23 196 0.0 3.2 0.00 0.00 0.00 62 1017.3
20260903135724 23 183 1.6 3.2 0.00 0.00 0.00 61 1017.3
20260903135523 23 196 0.0 3.2 0.00 0.00 0.00 60 1017.1
20260903135506 23 194 0.0 3.2 0.00 0.00 0.00 61 1017.3
20260903135451 23 213 0.0 3.2 0.00 0.00 0.00 61 1017.4
20260903135223 23 194 0.0 3.2 0.00 0.00 0.00 62 1017.2
20260903135158 23 199 0.0 3.2 0.00 0.00 0.00 62 1017.4
20260903135142 23 215 1.6 3.2 0.00 0.00 0.00 61 1017.3
20260903134825 23 192 0.0 3.2 0.00 0.00 0.00 61 1017.4
20260903134724 23 213 0.0 3.2 0.00 0.00 0.00 61 1017.0
20260903134623 23 198 0.0 3.2 0.00 0.00 0.00 60 1017.2
20260903134527 23 194 0.0 3.2 0.00 0.00 0.00 60 1017.3
20260903134523 23 196 0.0 3.2 0.00 0.00 0.00 61 1017.0
20260903134507 23 202 0.0 3.2 0.00 0.00 0.00 60 1017.2
20260903134451 23 196 0.0 3.2 0.00 0.00 0.00 60 1017.2
20260903134434 23 194 0.0 3.2 0.00 0.00 0.00 60 1017.3
20260903134124 23 203 0.0 6.4 0.00 0.00 0.00 59 1017.2
20260903134023 23 198 0.0 6.4 0.00 0.00 0.00 59 1017.2
20260903133922 23 188 0.0 6.4 0.00 0.00 0.00 59 1017.2
20260903133823 23 196 0.0 6.4 0.00 0.00 0.00 59 1017.4
20260903133723 23 198 0.0 6.4 0.00 0.00 0.00 60 1017.2
20260903133700 23 199 0.0 6.4 0.00 0.00 0.00 60 1017.0
20260903133644 23 198 0.0 6.4 0.00 0.00 0.00 60 1017.1
20260903133323 23 213 0.0 6.4 0.00 0.00 0.00 58 1017.3
20260903133223 23 179 3.2 6.4 0.00 0.00 0.00 58 1017.1
20260903133159 23 199 0.0 4.8 0.00 0.00 0.00 59 1017.1
20260903133143 23 205 0.0 3.2 0.00 0.00 0.00 59 1017.3
20260903132823 23 196 0.0 12.9 0.00 0.00 0.00 59 1017.3
20260903132723 23 195 0.0 12.9 0.00 0.00 0.00 59 1017.1
20260903132624 23 130 0.0 12.9 0.00 0.00 0.00 60 1017.0
20260903132524 23 200 0.0 12.9 0.00 0.00 0.00 60 1017.4
20260903132423 23 192 0.0 12.9 0.00 0.00 0.00 60 1017.0
20260903132324 23 199 0.0 12.9 0.00 0.00 0.00 60 1017.2
20260903132223 23 196 0.0 12.9 0.00 0.00 0.00 61 1017.1
20260903132123 23 199 0.0 12.9 0.00 0.00 0.00 60 1017.1
20260903132023 23 216 6.4 12.9 0.00 0.00 0.00 60 1017.0
20260903131923 23 213 1.6 4.8 0.00 0.00 0.00 61 1017.0
20260903131823 23 183 0.0 3.2 0.00 0.00 0.00 61 1017.3
20260903131725 23 196 0.0 3.2 0.00 0.00 0.00 61 1016.9
20260903131623 23 197 0.0 3.2 0.00 0.00 0.00 62 1017.3
20260903131600 23 192 1.6 3.2 0.00 0.00 0.00 63 1017.4
20260903131544 23 203 0.0 3.2 0.00 0.00 0.00 62 1017.5
20260903131527 23 191 0.0 1.6 0.00 0.00 0.00 62 1017.3
20260903131301 23 203 0.0 1.6 0.00 0.00 0.00 62 1017.2
20260903131245 23 198 0.0 1.6 0.00 0.00 0.00 62 1017.4
20260903131228 23 199 0.0 1.6 0.00 0.00 0.00 62 1017.3
20260903130952 23 194 0.0 6.4 0.00 0.00 0.00 63 1017.3
20260903130723 23 200 0.0 6.4 0.00 0.00 0.00 63 1017.3
20260903130623 23 196 0.0 6.4 0.00 0.00 0.00 63 1017.4
20260903130523 22 202 0.0 6.4 0.00 0.00 0.00 62 1017.3
20260903130423 22 209 0.0 6.4 0.00 0.00 0.00 62 1017.3
20260903130324 22 191 0.0 6.4 0.00 0.00 0.00 62 1017.3
20260903130223 22 202 0.0 6.4 0.00 0.00 0.00 62 1017.6
20260903130123 22 199 0.0 6.4 0.00 0.00 0.00 62 1017.2
20260903130058 23 226 3.2 4.8 0.00 0.00 0.00 62 1017.3
20260903130042 23 195 0.0 4.8 0.00 0.00 0.00 64 1017.3
20260903125723 23 199 0.0 4.8 0.00 0.00 0.00 63 1017.5
20260903125623 23 196 0.0 4.8 0.00 0.00 0.00 63 1017.5
20260903125602 22 154 0.0 4.8 0.00 0.00 0.00 62 1017.5
20260903125553 23 197 0.0 4.8 0.00 0.00 0.00 64 1017.5
20260903125536 22 199 0.0 4.8 0.00 0.00 0.00 64 1017.5
20260903125520 22 203 3.2 4.8 0.00 0.00 0.00 62 1017.5
20260903125254 23 196 1.6 6.4 0.00 0.00 0.00 63 1017.8
20260903125238 23 202 0.0 6.4 0.00 0.00 0.00 63 1017.5
20260903125222 22 200 1.6 6.4 0.00 0.00 0.00 62 1017.7
20260903124946 22 198 0.0 6.4 0.00 0.00 0.00 62 1017.5
20260903124922 22 199 0.0 6.4 0.00 0.00 0.00 62 1017.6
20260903124657 22 193 0.0 6.4 0.00 0.00 0.00 63 1017.5
20260903124642 22 190 0.0 6.4 0.00 0.00 0.00 63 1017.2
20260903124626 22 201 0.0 6.4 0.00 0.00 0.00 62 1017.5
20260903124610 22 242 3.2 6.4 0.00 0.00 0.00 62 1017.6
20260903124553 22 154 0.0 4.8 0.00 0.00 0.00 62 1017.5
20260903124023 22 203 0.0 4.8 0.00 0.00 0.00 64 1017.5
20260903123923 23 195 0.0 4.8 0.00 0.00 0.00 64 1017.2
20260903123823 23 196 0.0 0.0 0.00 0.00 0.00 64 1017.6
20260903123724 23 211 0.0 3.2 0.00 0.00 0.00 65 1017.5
20260903123623 23 199 0.0 3.2 0.00 0.00 0.00 66 1017.6
20260903123523 23 201 0.0 3.2 0.00 0.00 0.00 65 1017.8
20260903123458 23 199 0.0 3.2 0.00 0.00 0.00 65 1017.7
20260903123442 23 200 0.0 3.2 0.00 0.00 0.00 65 1017.6
20260903123420 22 197 0.0 3.2 0.00 0.00 0.00 65 1017.7
20260903123404 22 198 0.0 3.2 0.00 0.00 0.00 65 1017.7
20260903122901 23 190 0.0 3.2 0.00 0.00 0.00 65 1017.4
20260903122835 23 215 1.6 3.2 0.00 0.00 0.00 65 1017.7
20260903122819 23 205 0.0 1.6 0.00 0.00 0.00 65 1017.6
20260903122803 23 200 0.0 1.6 0.00 0.00 0.00 64 1017.8
20260903122747 23 194 0.0 4.8 0.00 0.00 0.00 64 1017.6
20260903122305 23 200 0.0 9.7 0.00 0.00 0.00 64 1017.5
20260903122245 23 196 0.0 9.7 0.00 0.00 0.00 64 1017.7
20260903122008 23 174 0.0 9.7 0.00 0.00 0.00 65 1017.7
20260903121952 22 198 0.0 9.7 0.00 0.00 0.00 65 1017.7
20260903121724 22 200 0.0 9.7 0.00 0.00 0.00 65 1017.6
20260903121623 22 208 0.0 9.7 0.00 0.00 0.00 65 1017.7
20260903121559 23 202 1.6 9.7 0.00 0.00 0.00 64 1017.6
20260903121543 23 206 3.2 9.7 0.00 0.00 0.00 64 1017.6
20260903121222 23 205 1.6 1.6 0.00 0.00 0.00 64 1017.7
20260903121125 23 205 0.0 1.6 0.00 0.00 0.00 65 1017.5
20260903121059 23 199 0.0 1.6 0.00 0.00 0.00 64 1017.7
20260903121043 23 202 0.0 1.6 0.00 0.00 0.00 66 1017.5
20260903120723 23 198 0.0 1.6 0.00 0.00 0.00 65 1017.8
20260903120623 23 196 0.0 1.6 0.00 0.00 0.00 66 1017.6
20260903120522 23 202 0.0 1.6 0.00 0.00 0.00 65 1017.8
20260903120424 23 202 0.0 1.6 0.00 0.00 0.00 64 1017.7
20260903120323 23 202 0.0 1.6 0.00 0.00 0.00 63 1017.8
20260903120223 23 196 0.0 1.6 0.00 0.00 0.00 63 1017.8
20260903120124 23 195 0.0 1.6 0.00 0.00 0.00 62 1017.8
20260903120058 23 196 0.0 1.6 0.00 0.00 0.00 63 1017.8
20260903120043 23 202 0.0 1.6 0.00 0.00 0.00 62 1017.9
20260903115723 23 199 0.0 1.6 0.00 0.00 0.00 63 1017.8
20260903115622 23 201 0.0 1.6 0.00 0.00 0.00 63 1017.8
20260903115525 23 206 0.0 1.6 0.00 0.00 0.00 63 1017.9
20260903115423 23 196 0.0 1.6 0.00 0.00 0.00 64 1017.8
20260903115357 23 191 0.0 1.6 0.00 0.00 0.00 65 1017.9
20260903115335 23 201 0.0 1.6 0.00 0.00 0.00 64 1017.6
20260903115319 23 198 0.0 1.6 0.00 0.00 0.00 64 1017.8
20260903115043 23 196 0.0 1.6 0.00 0.00 0.00 64 1017.9
20260903114723 23 194 0.0 1.6 0.00 0.00 0.00 64 1017.8
20260903114623 23 200 0.0 1.6 0.00 0.00 0.00 64 1017.7
20260903114527 23 196 0.0 3.2 0.00 0.00 0.00 65 1017.8
20260903114522 23 175 0.0 0.0 0.00 0.00 0.00 65 1017.9
20260903114507 23 202 0.0 0.0 0.00 0.00 0.00 65 1017.9
20260903114450 23 198 0.0 3.2 0.00 0.00 0.00 64 1017.6
20260903114432 23 196 0.0 3.2 0.00 0.00 0.00 65 1017.8
20260903114200 23 199 0.0 3.2 0.00 0.00 0.00 65 1017.8
20260903114144 22 198 0.0 3.2 0.00 0.00 0.00 64 1017.8
20260903114127 22 199 0.0 3.2 0.00 0.00 0.00 64 1017.8
20260903113843 22 197 0.0 3.2 0.00 0.00 0.00 65 1017.8
20260903113523 22 201 0.0 3.2 0.00 0.00 0.00 65 1017.7
20260903113423 22 201 0.0 3.2 0.00 0.00 0.00 65 1018.0
20260903113323 22 192 0.0 3.2 0.00 0.00 0.00 65 1018.1
20260903113223 23 192 0.0 3.2 0.00 0.00 0.00 65 1018.0
20260903113124 23 198 0.0 3.2 0.00 0.00 0.00 66 1017.9
20260903113023 23 197 0.0 3.2 0.00 0.00 0.00 66 1017.9
20260903112924 23 201 0.0 3.2 0.00 0.00 0.00 64 1017.8
20260903112824 23 205 0.0 3.2 0.00 0.00 0.00 64 1017.8
20260903112723 23 182 0.0 3.2 0.00 0.00 0.00 65 1018.0
20260903112623 23 205 1.6 3.2 0.00 0.00 0.00 65 1018.0
20260903112610 22 199 0.0 3.2 0.00 0.00 0.00 65 1017.9
20260903112601 23 197 0.0 3.2 0.00 0.00 0.00 64 1018.0
20260903112545 23 230 1.6 3.2 0.00 0.00 0.00 64 1017.8
20260903112528 23 199 0.0 1.6 0.00 0.00 0.00 65 1018.0
20260903112305 23 194 0.0 1.6 0.00 0.00 0.00 65 1018.1
20260903112245 22 200 0.0 3.2 0.00 0.00 0.00 65 1018.0
20260903112008 22 195 0.0 3.2 0.00 0.00 0.00 64 1018.0
20260903111952 22 197 0.0 3.2 0.00 0.00 0.00 65 1018.0
20260903111933 22 199 0.0 3.2 0.00 0.00 0.00 65 1017.9
20260903111624 22 187 0.0 3.2 0.00 0.00 0.00 66 1018.0
20260903111523 22 198 0.0 3.2 0.00 0.00 0.00 66 1018.0
20260903111506 22 188 0.0 3.2 0.00 0.00 0.00 65 1017.8
20260903111451 22 203 0.0 3.2 0.00 0.00 0.00 66 1018.0
20260903111223 22 200 1.6 3.2 0.00 0.00 0.00 65 1018.1
20260903111123 22 216 0.0 1.6 0.00 0.00 0.00 66 1017.9
20260903111023 22 192 0.0 1.6 0.00 0.00 0.00 66 1018.0
20260903110923 22 197 0.0 1.6 0.00 0.00 0.00 66 1017.9
20260903110825 22 195 0.0 1.6 0.00 0.00 0.00 67 1017.8
20260903110723 22 180 0.0 1.6 0.00 0.00 0.00 66 1018.0
20260903110624 22 175 0.0 1.6 0.00 0.00 0.00 67 1018.0
20260903110523 22 192 0.0 1.6 0.00 0.00 0.00 65 1018.0
20260903110423 22 191 0.0 1.6 0.00 0.00 0.00 65 1018.0
20260903110328 23 197 0.0 3.2 0.00 0.00 0.00 64 1018.3
20260903110324 22 194 0.0 1.6 0.00 0.00 0.00 65 1018.0
20260903110301 23 185 0.0 1.6 0.00 0.00 0.00 65 1017.7
20260903110244 23 204 0.0 1.6 0.00 0.00 0.00 65 1017.9
20260903110228 23 203 0.0 1.6 0.00 0.00 0.00 65 1018.2
20260903110212 23 198 0.0 1.6 0.00 0.00 0.00 64 1018.0
20260903110156 23 198 0.0 1.6 0.00 0.00 0.00 64 1017.8
20260903105624 23 198 0.0 3.2 0.00 0.00 0.00 64 1018.1
20260903105559 23 203 0.0 3.2 0.00 0.00 0.00 63 1018.0
20260903105544 23 208 0.0 3.2 0.00 0.00 0.00 63 1018.2
20260903105224 23 198 0.0 3.2 0.00 0.00 0.00 66 1018.2
20260903105159 22 201 0.0 3.2 0.00 0.00 0.00 65 1018.2
20260903105143 22 194 0.0 3.2 0.00 0.00 0.00 65 1018.1
20260903104823 22 192 0.0 3.2 0.00 0.00 0.00 65 1018.1
20260903104735 23 255 1.6 1.6 0.00 0.00 0.00 64 1018.0
20260903104712 22 201 0.0 3.2 0.00 0.00 0.00 65 1018.4
20260903104708 23 195 0.0 11.3 0.00 0.00 0.00 61 1018.2
20260903104702 24 205 3.2 6.4 0.00 0.00 0.00 61 1018.3
20260903104658 25 201 0.0 4.8 0.00 0.00 0.00 61 1018.5
20260903104650 23 203 1.6 1.6 0.00 0.00 0.00 63 1018.0
20260903104634 23 127 0.0 1.6 0.00 0.00 0.00 63 1018.1
20260903104619 23 190 0.0 1.6 0.00 0.00 0.00 63 1018.2
20260903104603 23 191 0.0 1.6 0.00 0.00 0.00 62 1018.1
20260903104541 23 199 0.0 1.6 0.00 0.00 0.00 64 1018.0
20260903104524 23 195 0.0 1.6 0.00 0.00 0.00 64 1017.9
20260903104508 23 195 0.0 1.6 0.00 0.00 0.00 64 1018.1
20260903104004 23 189 0.0 1.6 0.00 0.00 0.00 65 1018.0
20260903103948 23 198 0.0 1.6 0.00 0.00 0.00 65 1018.2
20260903103932 23 176 1.6 1.6 0.00 0.00 0.00 64 1018.2
20260903103656 22 197 0.0 1.6 0.00 0.00 0.00 65 1017.8
20260903103633 22 194 0.0 1.6 0.00 0.00 0.00 64 1018.0
20260903103618 23 183 0.0 1.6 0.00 0.00 0.00 63 1017.9
20260903103602 23 171 0.0 1.6 0.00 0.00 0.00 63 1018.0
20260903103547 23 202 0.0 1.6 0.00 0.00 0.00 63 1018.4
20260903103531 23 200 0.0 1.6 0.00 0.00 0.00 63 1018.2
20260903103507 22 202 0.0 1.6 0.00 0.00 0.00 63 1018.2
20260903103231 22 198 0.0 3.2 0.00 0.00 0.00 65 1018.2
20260903103215 22 200 0.0 3.2 0.00 0.00 0.00 65 1018.1
20260903103159 22 201 0.0 3.2 0.00 0.00 0.00 65 1018.3
20260903103142 22 201 0.0 3.2 0.00 0.00 0.00 65 1018.4
20260903102916 22 192 0.0 3.2 0.00 0.00 0.00 65 1018.1
20260903102900 22 194 0.0 3.2 0.00 0.00 0.00 65 1018.1
20260903102844 23 184 0.0 6.4 0.00 0.00 0.00 63 1018.1
20260903102135 24 200 0.0 11.3 0.00 0.00 0.00 63 1018.3
20260903102119 24 207 0.0 11.3 0.00 0.00 0.00 60 1018.5
20260903102102 24 206 1.6 11.3 0.00 0.00 0.00 61 1018.7
20260903102046 23 205 0.0 11.3 0.00 0.00 0.00 62 1018.4
20260903101820 23 203 0.0 11.3 0.00 0.00 0.00 63 1018.7
20260903101804 23 201 0.0 11.3 0.00 0.00 0.00 62 1018.4
20260903101308 24 203 0.0 6.4 0.00 0.00 0.00 60 1018.2
20260903101039 24 203 0.0 6.4 0.00 0.00 0.00 60 1018.2
20260903101022 24 193 0.0 6.4 0.00 0.00 0.00 61 1018.2
20260903101006 24 203 1.6 6.4 0.00 0.00 0.00 61 1018.3
20260903100950 24 224 4.8 6.4 0.00 0.00 0.00 60 1018.0
20260903100934 24 222 1.6 6.4 0.00 0.00 0.00 60 1018.2
20260903100227 24 201 0.0 3.2 0.00 0.00 0.00 62 1018.2
20260903095951 24 196 1.6 3.2 0.00 0.00 0.00 60 1018.4
20260903095932 25 201 0.0 4.8 0.00 0.00 0.00 61 1018.5
20260903095623 25 218 0.0 4.8 0.00 0.00 0.00 58 1018.3
20260903095559 25 199 0.0 4.8 0.00 0.00 0.00 59 1018.7
20260903095543 25 204 0.0 4.8 0.00 0.00 0.00 60 1018.5
20260903095223 25 194 0.0 4.8 0.00 0.00 0.00 59 1018.9
20260903095122 25 199 0.0 4.8 0.00 0.00 0.00 60 1018.7
20260903095023 25 207 0.0 4.8 0.00 0.00 0.00 59 1018.4
20260903094923 24 223 1.6 4.8 0.00 0.00 0.00 59 1018.9
20260903094823 24 200 0.0 4.8 0.00 0.00 0.00 60 1018.8
20260903094725 24 201 0.0 3.2 0.00 0.00 0.00 62 1018.5
20260903094622 24 201 0.0 3.2 0.00 0.00 0.00 63 1018.8
20260903094527 23 201 0.0 3.2 0.00 0.00 0.00 62 1018.7
20260903094515 24 154 1.6 3.2 0.00 0.00 0.00 62 1018.7
20260903094506 23 187 0.0 3.2 0.00 0.00 0.00 61 1018.5
20260903094450 24 83 1.6 3.2 0.00 0.00 0.00 61 1018.7
20260903094432 24 154 1.6 3.2 0.00 0.00 0.00 62 1018.7
20260903094123 24 191 1.6 3.2 0.00 0.00 0.00 62 1018.7
20260903094024 24 196 0.0 3.2 0.00 0.00 0.00 62 1018.8
20260903093923 23 200 1.6 3.2 0.00 0.00 0.00 62 1018.8
20260903093824 23 199 0.0 4.8 0.00 0.00 0.00 62 1018.8
20260903093723 23 146 1.6 4.8 0.00 0.00 0.00 62 1018.7
20260903093623 23 130 1.6 4.8 0.00 0.00 0.00 61 1019.0
20260903093524 23 193 1.6 4.8 0.00 0.00 0.00 62 1018.5
20260903093424 23 200 0.0 4.8 0.00 0.00 0.00 62 1018.9
20260903093323 23 196 0.0 4.8 0.00 0.00 0.00 61 1019.0
20260903093223 23 205 0.0 4.8 0.00 0.00 0.00 61 1018.7
20260903093124 23 198 1.6 4.8 0.00 0.00 0.00 62 1018.8
20260903093022 23 199 0.0 4.8 0.00 0.00 0.00 64 1018.9
20260903093001 23 203 0.0 4.8 0.00 0.00 0.00 60 1018.9
20260903092946 24 218 4.8 4.8 0.00 0.00 0.00 59 1018.8
20260903092921 24 202 0.0 4.8 0.00 0.00 0.00 60 1018.8
20260903092905 24 203 0.0 4.8 0.00 0.00 0.00 60 1018.5
20260903092324 23 205 0.0 4.8 0.00 0.00 0.00 62 1019.0
20260903092223 23 202 0.0 4.8 0.00 0.00 0.00 62 1018.8
20260903092124 23 177 0.0 4.8 0.00 0.00 0.00 62 1018.9
20260903092058 23 199 0.0 4.8 0.00 0.00 0.00 62 1019.0
20260903092043 23 203 0.0 4.8 0.00 0.00 0.00 60 1019.1
20260903091723 24 225 3.2 4.8 0.00 0.00 0.00 59 1018.9
20260903091623 25 221 1.6 3.2 0.00 0.00 0.00 58 1018.8
20260903091601 25 197 0.0 3.2 0.00 0.00 0.00 60 1018.9
20260903091544 25 196 0.0 3.2 0.00 0.00 0.00 59 1019.1
20260903091528 25 201 0.0 3.2 0.00 0.00 0.00 58 1019.0
20260903091302 25 205 0.0 3.2 0.00 0.00 0.00 57 1019.3
20260903091245 25 212 0.0 3.2 0.00 0.00 0.00 57 1018.8
20260903090924 25 209 1.6 3.2 0.00 0.00 0.00 60 1018.9
20260903090823 24 208 0.0 1.6 0.00 0.00 0.00 59 1018.9
20260903090723 24 198 0.0 1.6 0.00 0.00 0.00 58 1018.8
20260903090624 24 200 0.0 1.6 0.00 0.00 0.00 59 1018.9
20260903090601 23 199 0.0 1.6 0.00 0.00 0.00 61 1019.1
20260903090545 23 199 0.0 1.6 0.00 0.00 0.00 62 1019.1
20260903090223 23 162 1.6 1.6 0.00 0.00 0.00 62 1019.0
20260903090123 23 202 0.0 1.6 0.00 0.00 0.00 61 1019.0
20260903090023 23 199 0.0 1.6 0.00 0.00 0.00 62 1018.7
20260903085923 24 201 0.0 1.6 0.00 0.00 0.00 61 1019.1
20260903085823 24 204 0.0 1.6 0.00 0.00 0.00 60 1019.0
20260903085723 24 202 0.0 1.6 0.00 0.00 0.00 59 1019.1
20260903085623 23 198 0.0 1.6 0.00 0.00 0.00 60 1019.1
20260903085523 23 207 0.0 1.6 0.00 0.00 0.00 59 1019.1
20260903085505 23 203 0.0 0.0 0.00 0.00 0.00 58 1019.0
20260903085450 23 201 0.0 0.0 0.00 0.00 0.00 61 1019.1
20260903085223 23 202 0.0 0.0 0.00 0.00 0.00 62 1019.1
20260903085159 23 195 0.0 0.0 0.00 0.00 0.00 62 1019.0
20260903085143 23 204 0.0 0.0 0.00 0.00 0.00 63 1019.0
20260903084823 23 199 0.0 0.0 0.00 0.00 0.00 63 1019.3
20260903084722 22 199 0.0 0.0 0.00 0.00 0.00 65 1019.2
20260903084227 22 202 0.0 3.2 0.00 0.00 0.00 65 1019.1
20260903083906 22 204 1.6 3.2 0.00 0.00 0.00 62 1019.1
20260903083809 22 199 0.0 3.2 0.00 0.00 0.00 63 1019.1
20260903083727 22 196 1.6 3.2 0.00 0.00 0.00 62 1019.1
20260903083707 22 202 0.0 3.2 0.00 0.00 0.00 62 1019.2
20260903083608 22 202 0.0 3.2 0.00 0.00 0.00 62 1019.2
20260903083507 22 201 0.0 3.2 0.00 0.00 0.00 63 1019.2
20260903083451 22 197 0.0 3.2 0.00 0.00 0.00 66 1019.2
20260903083435 22 201 0.0 3.2 0.00 0.00 0.00 66 1019.2
20260903083420 23 203 0.0 3.2 0.00 0.00 0.00 66 1019.2
20260903083143 22 202 0.0 1.6 0.00 0.00 0.00 65 1019.3
20260903083126 22 203 0.0 1.6 0.00 0.00 0.00 65 1019.0
20260903082808 22 201 0.0 1.6 0.00 0.00 0.00 67 1019.3
20260903082741 22 203 0.0 1.6 0.00 0.00 0.00 67 1019.3
20260903082706 22 196 0.0 1.6 0.00 0.00 0.00 68 1019.0
20260903082608 22 148 1.6 1.6 0.00 0.00 0.00 67 1019.4
20260903082507 22 187 0.0 1.6 0.00 0.00 0.00 66 1019.4
20260903082408 22 166 0.0 1.6 0.00 0.00 0.00 66 1019.1
20260903082307 22 191 1.6 1.6 0.00 0.00 0.00 66 1019.2
20260903082252 22 198 0.0 1.6 0.00 0.00 0.00 66 1019.2
20260903082244 22 200 0.0 1.6 0.00 0.00 0.00 66 1019.4
20260903082228 22 196 0.0 1.6 0.00 0.00 0.00 67 1019.3
20260903081943 22 200 0.0 1.6 0.00 0.00 0.00 68 1019.2
20260903081928 22 199 0.0 1.6 0.00 0.00 0.00 67 1019.2
20260903081913 22 201 0.0 1.6 0.00 0.00 0.00 67 1019.2
20260903081903 22 200 0.0 1.6 0.00 0.00 0.00 67 1019.4
20260903081847 22 191 0.0 1.6 0.00 0.00 0.00 68 1019.2
20260903081351 22 194 0.0 1.6 0.00 0.00 0.00 67 1019.1
20260903081336 22 198 0.0 1.6 0.00 0.00 0.00 67 1019.1
20260903081329 22 199 0.0 1.6 0.00 0.00 0.00 67 1019.2
20260903081007 22 196 0.0 1.6 0.00 0.00 0.00 66 1019.2
20260903080907 22 198 0.0 1.6 0.00 0.00 0.00 67 1019.1
20260903080807 22 198 0.0 1.6 0.00 0.00 0.00 68 1019.3
20260903080739 22 200 0.0 1.6 0.00 0.00 0.00 69 1019.3
20260903080707 22 200 0.0 1.6 0.00 0.00 0.00 69 1019.2
20260903080643 22 200 0.0 1.6 0.00 0.00 0.00 70 1019.1
20260903080627 22 207 0.0 1.6 0.00 0.00 0.00 70 1019.2
20260903080612 21 201 0.0 1.6 0.00 0.00 0.00 72 1019.4
20260903080557 21 200 0.0 1.6 0.00 0.00 0.00 72 1019.3
20260903080542 21 192 0.0 1.6 0.00 0.00 0.00 71 1019.3
20260903080008 21 181 1.6 1.6 0.00 0.00 0.00 71 1019.4
20260903075907 21 191 1.6 1.6 0.00 0.00 0.00 72 1019.1
20260903075809 21 177 1.6 3.2 0.00 0.00 0.00 72 1019.3
20260903075728 21 175 0.0 4.8 0.00 0.00 0.00 73 1019.3
20260903075706 21 204 0.0 6.4 0.00 0.00 0.00 73 1019.3
20260903075607 21 197 1.6 6.4 0.00 0.00 0.00 72 1019.2
20260903075507 22 196 0.0 6.4 0.00 0.00 0.00 72 1019.3
20260903075406 22 203 0.0 6.4 0.00 0.00 0.00 71 1019.3
20260903075307 22 199 0.0 6.4 0.00 0.00 0.00 70 1019.4
20260903075227 22 205 0.0 6.4 0.00 0.00 0.00 70 1019.4
20260903075208 22 204 0.0 6.4 0.00 0.00 0.00 71 1019.4
20260903075106 21 207 0.0 6.4 0.00 0.00 0.00 71 1019.3
20260903075007 21 203 1.6 6.4 0.00 0.00 0.00 70 1019.4
20260903074914 21 203 0.0 6.4 0.00 0.00 0.00 71 1019.0
20260903074807 22 216 3.2 6.4 0.00 0.00 0.00 71 1019.0
20260903074727 22 217 6.4 6.4 0.00 0.00 0.00 71 1019.3
20260903074707 22 208 3.2 4.8 0.00 0.00 0.00 71 1019.3
20260903074643 22 200 0.0 3.2 0.00 0.00 0.00 71 1019.3
20260903074628 22 176 0.0 3.2 0.00 0.00 0.00 69 1019.2
20260903074308 22 208 0.0 3.2 0.00 0.00 0.00 70 1019.0
20260903074227 22 199 0.0 3.2 0.00 0.00 0.00 70 1019.0
20260903074207 22 199 0.0 3.2 0.00 0.00 0.00 70 1019.2
20260903074106 22 200 0.0 3.2 0.00 0.00 0.00 71 1019.2
20260903074023 22 201 0.0 3.2 0.00 0.00 0.00 71 1019.3
20260903074018 22 218 1.6 3.2 0.00 0.00 0.00 72 1019.4
20260903074002 22 202 0.0 3.2 0.00 0.00 0.00 72 1019.1
20260903073946 22 218 0.0 3.2 0.00 0.00 0.00 72 1019.3
20260903073707 22 198 0.0 3.2 0.00 0.00 0.00 71 1019.2
20260903073607 22 200 0.0 3.2 0.00 0.00 0.00 72 1019.3
20260903073506 22 194 0.0 3.2 0.00 0.00 0.00 71 1019.2
20260903073408 22 200 0.0 3.2 0.00 0.00 0.00 71 1019.2
20260903073307 22 200 0.0 3.2 0.00 0.00 0.00 71 1019.2
20260903073228 22 201 0.0 3.2 0.00 0.00 0.00 71 1019.2
20260903073207 22 204 1.6 3.2 0.00 0.00 0.00 70 1019.3
20260903073132 22 199 0.0 3.2 0.00 0.00 0.00 71 1019.3
20260903073116 22 207 1.6 1.6 0.00 0.00 0.00 70 1019.1
20260903073101 22 200 0.0 1.6 0.00 0.00 0.00 71 1019.2
20260903072828 22 200 0.0 6.4 0.00 0.00 0.00 70 1018.9
20260903072817 22 200 0.0 6.4 0.00 0.00 0.00 71 1019.2
20260903072524 21 199 0.0 6.4 0.00 0.00 0.00 73 1019.2
20260903072517 21 198 0.0 6.4 0.00 0.00 0.00 72 1019.1
20260903072501 21 199 0.0 6.4 0.00 0.00 0.00 73 1019.1
20260903072446 21 200 0.0 6.4 0.00 0.00 0.00 73 1019.2
20260903072155 21 196 0.0 6.4 0.00 0.00 0.00 73 1019.2
20260903072055 21 205 0.0 6.4 0.00 0.00 0.00 74 1019.2
20260903071956 21 198 0.0 6.4 0.00 0.00 0.00 74 1019.2
20260903071855 20 199 0.0 6.4 0.00 0.00 0.00 74 1019.0
20260903071828 20 205 3.2 6.4 0.00 0.00 0.00 74 1018.9
20260903071815 20 243 1.6 4.8 0.00 0.00 0.00 75 1018.9
20260903071804 20 196 0.0 4.8 0.00 0.00 0.00 76 1019.2
20260903071444 20 202 0.0 4.8 0.00 0.00 0.00 76 1019.1
20260903071343 20 208 1.6 4.8 0.00 0.00 0.00 75 1019.3
20260903071243 20 202 0.0 4.8 0.00 0.00 0.00 77 1019.0
20260903071227 20 198 0.0 4.8 0.00 0.00 0.00 77 1019.0
20260903071143 19 199 0.0 4.8 0.00 0.00 0.00 77 1019.2
20260903071043 19 195 1.6 4.8 0.00 0.00 0.00 77 1019.2
20260903070942 20 203 1.6 4.8 0.00 0.00 0.00 76 1019.3
20260903070843 20 198 1.6 4.8 0.00 0.00 0.00 76 1019.1
20260903070743 20 202 1.6 4.8 0.00 0.00 0.00 76 1019.0
20260903070727 20 197 0.0 4.8 0.00 0.00 0.00 76 1019.0
20260903070644 20 206 1.6 4.8 0.00 0.00 0.00 76 1019.0
20260903070543 20 207 3.2 4.8 0.00 0.00 0.00 75 1019.0
20260903070443 20 224 1.6 3.2 0.00 0.00 0.00 75 1019.2
20260903070344 20 204 1.6 4.8 0.00 0.00 0.00 75 1019.1
20260903070244 21 195 1.6 4.8 0.00 0.00 0.00 75 1018.8
20260903070227 21 199 0.0 4.8 0.00 0.00 0.00 75 1018.8
20260903070143 21 200 0.0 4.8 0.00 0.00 0.00 76 1019.2
20260903070119 20 196 0.0 4.8 0.00 0.00 0.00 75 1019.1
20260903070103 20 192 0.0 4.8 0.00 0.00 0.00 76 1018.9
20260903065816 20 209 0.0 4.8 0.00 0.00 0.00 75 1019.1
20260903065804 20 201 0.0 4.8 0.00 0.00 0.00 76 1019.0
20260903065518 20 202 0.0 4.8 0.00 0.00 0.00 76 1019.1
20260903065501 20 221 3.2 4.8 0.00 0.00 0.00 76 1019.0
20260903065446 20 202 0.0 4.8 0.00 0.00 0.00 77 1019.0
20260903065434 20 199 0.0 4.8 0.00 0.00 0.00 77 1019.0
20260903065203 20 219 3.2 4.8 0.00 0.00 0.00 75 1019.2
20260903064921 20 190 0.0 4.8 0.00 0.00 0.00 75 1018.9
20260903064906 20 206 0.0 3.2 0.00 0.00 0.00 75 1019.0
20260903064854 20 208 0.0 3.2 0.00 0.00 0.00 75 1019.0
20260903064841 20 199 0.0 3.2 0.00 0.00 0.00 76 1019.0
20260903064605 20 208 0.0 6.4 0.00 0.00 0.00 76 1019.2
20260903064243 20 203 1.6 6.4 0.00 0.00 0.00 77 1018.9
20260903064227 20 198 0.0 6.4 0.00 0.00 0.00 77 1018.9
20260903064142 20 210 0.0 6.4 0.00 0.00 0.00 78 1019.2
20260903064043 20 198 0.0 6.4 0.00 0.00 0.00 78 1019.0
20260903063943 20 204 0.0 6.4 0.00 0.00 0.00 78 1019.0
20260903063843 19 196 0.0 6.4 0.00 0.00 0.00 79 1019.0
20260903063744 19 198 0.0 6.4 0.00 0.00 0.00 79 1018.9
20260903063727 20 198 0.0 6.4 0.00 0.00 0.00 79 1018.9
20260903063643 20 200 4.8 6.4 0.00 0.00 0.00 78 1019.2
20260903063619 20 204 0.0 4.8 0.00 0.00 0.00 78 1019.0
20260903063604 20 201 0.0 4.8 0.00 0.00 0.00 78 1019.0
20260903063257 18 187 0.0 0.0 0.00 0.00 0.00 84 1019.2
20260903063250 20 228 4.8 6.4 0.00 0.00 0.00 77 1019.1
20260903063238 20 216 3.2 6.4 0.00 0.00 0.00 77 1019.1
20260903063228 20 196 0.0 6.4 0.00 0.00 0.00 78 1019.0
20260903063213 19 192 0.0 6.4 0.00 0.00 0.00 78 1018.9
20260903062937 19 201 0.0 6.4 0.00 0.00 0.00 79 1018.9
20260903062921 19 206 0.0 6.4 0.00 0.00 0.00 79 1018.8
20260903062909 19 215 0.0 6.4 0.00 0.00 0.00 79 1018.8
20260903062857 19 201 1.6 6.4 0.00 0.00 0.00 79 1019.0
20260903062622 19 210 4.8 6.4 0.00 0.00 0.00 79 1018.9
20260903062606 19 201 0.0 3.2 0.00 0.00 0.00 79 1018.9
20260903062551 19 202 0.0 3.2 0.00 0.00 0.00 79 1019.0
20260903062539 19 202 0.0 3.2 0.00 0.00 0.00 79 1019.0
20260903062308 19 215 0.0 3.2 0.00 0.00 0.00 79 1019.1
20260903062027 20 203 0.0 3.2 0.00 0.00 0.00 79 1018.9
20260903062000 20 205 0.0 1.6 0.00 0.00 0.00 78 1019.1
20260903061947 20 202 0.0 1.6 0.00 0.00 0.00 79 1019.1
20260903061712 19 107 0.0 0.0 0.00 0.00 0.00 80 1019.1
20260903061657 19 194 0.0 0.0 0.00 0.00 0.00 81 1019.0
20260903061424 19 194 0.0 0.0 0.00 0.00 0.00 81 1019.1
20260903061152 18 194 0.0 0.0 0.00 0.00 0.00 82 1019.3
20260903061137 18 121 0.0 0.0 0.00 0.00 0.00 82 1018.9
20260903061120 18 191 0.0 0.0 0.00 0.00 0.00 83 1019.2
20260903061105 18 191 0.0 0.0 0.00 0.00 0.00 84 1019.2
20260903060836 18 191 0.0 0.0 0.00 0.00 0.00 84 1019.3
20260903060822 18 193 0.0 0.0 0.00 0.00 0.00 85 1019.3
20260903060243 17 193 0.0 0.0 0.00 0.00 0.00 88 1019.2
20260903060227 17 192 0.0 0.0 0.00 0.00 0.00 88 1019.2
20260903060143 17 193 0.0 0.0 0.00 0.00 0.00 89 1019.3
20260903060120 17 193 0.0 0.0 0.00 0.00 0.00 89 1019.2
20260903060104 16 191 0.0 0.0 0.00 0.00 0.00 89 1019.3
20260903055727 16 107 0.0 0.0 0.00 0.00 0.00 91 1019.5
20260903055643 16 194 0.0 0.0 0.00 0.00 0.00 92 1019.3
20260903055555 16 191 0.0 0.0 0.00 0.00 0.00 92 1019.3
20260903055540 15 191 0.0 0.0 0.00 0.00 0.00 92 1019.2
20260903055523 15 190 0.0 0.0 0.00 0.00 0.00 92 1019.3
20260903055507 15 186 0.0 0.0 0.00 0.00 0.00 92 1019.2
20260903055455 15 186 0.0 0.0 0.00 0.00 0.00 92 1019.2
20260903055444 15 181 0.0 0.0 0.00 0.00 0.00 93 1019.2
20260903055209 15 179 0.0 0.0 0.00 0.00 0.00 93 1019.1
20260903055153 15 190 0.0 0.0 0.00 0.00 0.00 93 1019.3
20260903054920 15 198 0.0 0.0 0.00 0.00 0.00 94 1019.0
20260903054908 15 201 0.0 0.0 0.00 0.00 0.00 94 1019.3
20260903054632 15 201 0.0 0.0 0.00 0.00 0.00 95 1019.2
20260903054616 15 201 0.0 0.0 0.00 0.00 0.00 96 1019.2
20260903054350 15 201 0.0 0.0 0.00 0.00 0.00 96 1019.1
20260903054031 15 200 0.0 0.0 0.00 0.00 0.00 97 1019.3
20260903053931 15 200 0.0 0.0 0.00 0.00 0.00 97 1019.2
20260903053831 15 200 0.0 0.0 0.00 0.00 0.00 97 1019.0
20260903053731 15 200 0.0 0.0 0.00 0.00 0.00 97 1019.1
20260903053715 15 200 0.0 0.0 0.00 0.00 0.00 97 1019.1
20260903053631 15 200 0.0 0.0 0.00 0.00 0.00 97 1019.2
20260903053607 15 200 0.0 0.0 0.00 0.00 0.00 97 1018.9
20260903053551 15 200 0.0 0.0 0.00 0.00 0.00 98 1019.1
20260903053232 14 200 0.0 0.0 0.00 0.00 0.00 98 1019.3
20260903053215 14 200 0.0 0.0 0.00 0.00 0.00 98 1019.3
20260903053131 14 200 0.0 0.0 0.00 0.00 0.00 98 1019.0
20260903053031 14 200 0.0 0.0 0.00 0.00 0.00 98 1019.3
20260903052931 14 200 0.0 0.0 0.00 0.00 0.00 98 1019.3
20260903052831 13 201 0.0 0.0 0.00 0.00 0.00 98 1019.2
20260903052731 13 201 0.0 0.0 0.00 0.00 0.00 98 1019.2
20260903052715 13 201 0.0 0.0 0.00 0.00 0.00 98 1019.2
20260903052631 13 201 0.0 0.0 0.00 0.00 0.00 98 1018.9
20260903052531 13 201 0.0 0.0 0.00 0.00 0.00 98 1019.3
20260903052511 13 201 0.0 0.0 0.00 0.00 0.00 98 1019.1
20260903052503 13 201 0.0 0.0 0.00 0.00 0.00 98 1019.0
20260903052447 13 201 0.0 0.0 0.00 0.00 0.00 98 1019.0
20260903052432 13 201 0.0 0.0 0.00 0.00 0.00 98 1019.1
20260903052130 13 201 0.0 0.0 0.00 0.00 0.00 98 1019.0
20260903052031 13 201 0.0 0.0 0.00 0.00 0.00 98 1019.1
20260903051931 13 201 0.0 0.0 0.00 0.00 0.00 98 1019.0
20260903051831 13 201 0.0 0.0 0.00 0.00 0.00 98 1019.2
20260903051716 13 201 0.0 0.0 0.00 0.00 0.00 98 1018.9
20260903051632 13 201 0.0 0.0 0.00 0.00 0.00 98 1019.1
20260903051608 13 201 0.0 0.0 0.00 0.00 0.00 98 1018.8
20260903051600 13 201 0.0 0.0 0.00 0.00 0.00 98 1019.1
20260903051543 13 201 0.0 0.0 0.00 0.00 0.00 98 1019.0
20260903051528 13 201 0.0 0.0 0.00 0.00 0.00 98 1019.3
20260903051257 13 201 0.0 0.0 0.00 0.00 0.00 98 1018.9
20260903051246 13 201 0.0 0.0 0.00 0.00 0.00 98 1018.9
20260903051230 13 201 0.0 0.0 0.00 0.00 0.00 98 1019.0
20260903051214 13 201 0.0 0.0 0.00 0.00 0.00 98 1018.9
20260903051157 13 201 0.0 0.0 0.00 0.00 0.00 98 1018.8
20260903050707 13 201 0.0 0.0 0.00 0.00 0.00 98 1018.9
20260903050651 13 201 0.0 1.6 0.00 0.00 0.00 98 1018.7
20260903050331 13 201 0.0 1.6 0.00 0.00 0.00 98 1019.1
20260903050216 13 201 0.0 1.6 0.00 0.00 0.00 98 1018.9
20260903050131 13 202 0.0 1.6 0.00 0.00 0.00 98 1018.9
20260903050034 13 202 0.0 1.6 0.00 0.00 0.00 98 1018.9
20260903045930 13 203 0.0 1.6 0.00 0.00 0.00 98 1018.8
20260903045831 13 206 0.0 1.6 0.00 0.00 0.00 98 1018.7
20260903045717 13 208 0.0 1.6 0.00 0.00 0.00 98 1018.7
20260903045707 13 208 0.0 1.6 0.00 0.00 0.00 98 1018.9
20260903045651 13 209 0.0 1.6 0.00 0.00 0.00 98 1018.7
20260903045330 13 205 1.6 1.6 0.00 0.00 0.00 98 1018.4
20260903045231 13 204 1.6 1.6 0.00 0.00 0.00 98 1018.8
20260903045215 13 200 0.0 1.6 0.00 0.00 0.00 98 1018.8
20260903045131 13 192 0.0 0.0 0.00 0.00 0.00 98 1018.5
20260903045032 13 192 0.0 0.0 0.00 0.00 0.00 98 1018.5
20260903044931 13 191 0.0 0.0 0.00 0.00 0.00 98 1018.8
20260903044831 13 191 0.0 0.0 0.00 0.00 0.00 98 1018.5
20260903044811 13 191 0.0 0.0 0.00 0.00 0.00 98 1018.7
20260903044749 13 191 0.0 0.0 0.00 0.00 0.00 98 1018.3
20260903044739 13 191 0.0 0.0 0.00 0.00 0.00 98 1018.7
20260903044723 13 191 0.0 0.0 0.00 0.00 0.00 98 1018.4
20260903044447 13 191 0.0 0.0 0.00 0.00 0.00 98 1018.7
20260903044431 13 191 0.0 0.0 0.00 0.00 0.00 98 1018.7
20260903044131 13 191 0.0 0.0 0.00 0.00 0.00 98 1018.8
20260903044031 13 191 0.0 0.0 0.00 0.00 0.00 98 1018.4
20260903044007 13 191 0.0 0.0 0.00 0.00 0.00 98 1018.5
20260903043950 13 191 0.0 0.0 0.00 0.00 0.00 98 1018.5
20260903043715 13 192 0.0 0.0 0.00 0.00 0.00 98 1018.5
20260903043657 13 192 0.0 0.0 0.00 0.00 0.00 98 1018.4
20260903043641 13 193 0.0 0.0 0.00 0.00 0.00 98 1018.4
20260903043625 13 193 0.0 0.0 0.00 0.00 0.00 98 1018.4
20260903043401 13 193 0.0 0.0 0.00 0.00 0.00 98 1018.4
20260903043346 13 194 0.0 0.0 0.00 0.00 0.00 98 1018.7
20260903043334 13 193 0.0 0.0 0.00 0.00 0.00 98 1018.7
20260903043324 13 194 0.0 0.0 0.00 0.00 0.00 98 1018.5
20260903043100 13 194 0.0 0.0 0.00 0.00 0.00 98 1018.8
20260903043045 13 194 0.0 0.0 0.00 0.00 0.00 98 1018.5
20260903043029 13 194 0.0 0.0 0.00 0.00 0.00 98 1018.5
20260903043014 13 194 0.0 0.0 0.00 0.00 0.00 98 1018.7
20260903043000 13 194 0.0 0.0 0.00 0.00 0.00 98 1018.7
20260903042949 13 194 0.0 0.0 0.00 0.00 0.00 97 1018.5
20260903042933 13 194 0.0 0.0 0.00 0.00 0.00 97 1018.5
20260903042657 13 194 0.0 0.0 0.00 0.00 0.00 97 1018.7
20260903042211 13 194 0.0 0.0 0.00 0.00 0.00 97 1018.5
20260903042156 13 195 0.0 0.0 0.00 0.00 0.00 97 1018.4
20260903042140 13 195 0.0 0.0 0.00 0.00 0.00 97 1018.5
20260903041859 13 188 0.0 0.0 0.00 0.00 0.00 97 1018.5
20260903041846 13 199 0.0 0.0 0.00 0.00 0.00 97 1018.5
20260903041532 13 196 0.0 0.0 0.00 0.00 0.00 97 1018.7
20260903041512 13 196 0.0 0.0 0.00 0.00 0.00 97 1018.7
20260903041456 13 196 0.0 0.0 0.00 0.00 0.00 97 1018.5
20260903041214 13 195 0.0 0.0 0.00 0.00 0.00 96 1018.8
20260903041131 13 194 0.0 0.0 0.00 0.00 0.00 96 1018.5
20260903041031 13 194 0.0 0.0 0.00 0.00 0.00 96 1018.7
20260903040930 13 194 0.0 0.0 0.00 0.00 0.00 96 1018.5
20260903040830 13 194 0.0 0.0 0.00 0.00 0.00 96 1018.5
20260903040715 13 194 0.0 0.0 0.00 0.00 0.00 96 1018.5
20260903040630 13 194 0.0 0.0 0.00 0.00 0.00 96 1018.7
20260903040530 13 194 0.0 0.0 0.00 0.00 0.00 96 1018.7
20260903040431 13 194 0.0 0.0 0.00 0.00 0.00 96 1018.5
20260903040331 13 194 0.0 0.0 0.00 0.00 0.00 96 1018.7
20260903040231 13 193 0.0 0.0 0.00 0.00 0.00 96 1018.7
20260903040130 13 194 0.0 0.0 0.00 0.00 0.00 96 1018.7
20260903040030 13 194 0.0 0.0 0.00 0.00 0.00 96 1018.5
20260903035931 13 194 0.0 0.0 0.00 0.00 0.00 96 1018.5
20260903035831 13 193 0.0 0.0 0.00 0.00 0.00 95 1018.5
20260903035718 13 194 0.0 0.0 0.00 0.00 0.00 95 1018.7
20260903035618 13 193 0.0 0.0 0.00 0.00 0.00 95 1018.5
20260903035521 13 195 0.0 0.0 0.00 0.00 0.00 95 1018.5
20260903035511 13 195 0.0 0.0 0.00 0.00 0.00 95 1018.7
20260903035502 13 195 0.0 0.0 0.00 0.00 0.00 95 1018.7
20260903035446 13 195 0.0 0.0 0.00 0.00 0.00 95 1018.7
20260903035428 13 195 0.0 0.0 0.00 0.00 0.00 95 1018.7
20260903035118 13 195 0.0 0.0 0.00 0.00 0.00 95 1018.3
20260903035018 13 193 0.0 0.0 0.00 0.00 0.00 95 1018.7
20260903034918 13 190 0.0 0.0 0.00 0.00 0.00 95 1018.5
20260903034819 13 190 0.0 0.0 0.00 0.00 0.00 95 1018.5
20260903034718 13 190 0.0 0.0 0.00 0.00 0.00 95 1018.5
20260903034618 13 190 0.0 0.0 0.00 0.00 0.00 95 1018.7
20260903034601 13 187 0.0 3.2 0.00 0.00 0.00 94 1018.5
20260903034552 13 189 0.0 0.0 0.00 0.00 0.00 94 1018.4
20260903034536 13 186 0.0 3.2 0.00 0.00 0.00 94 1018.5
20260903034521 13 187 0.0 3.2 0.00 0.00 0.00 94 1018.4
20260903034503 13 187 0.0 3.2 0.00 0.00 0.00 94 1018.5
20260903034239 13 187 0.0 3.2 0.00 0.00 0.00 94 1018.4
20260903033918 14 187 0.0 3.2 0.00 0.00 0.00 94 1018.7
20260903033818 14 186 0.0 3.2 0.00 0.00 0.00 94 1018.4
20260903033718 14 185 0.0 3.2 0.00 0.00 0.00 94 1018.0
20260903033618 14 185 0.0 3.2 0.00 0.00 0.00 94 1018.3
20260903033521 14 184 1.6 3.2 0.00 0.00 0.00 94 1018.9
20260903033511 13 153 1.6 1.6 0.00 0.00 0.00 95 1018.5
20260903033501 14 160 0.0 1.6 0.00 0.00 0.00 94 1018.4
20260903033445 14 174 1.6 1.6 0.00 0.00 0.00 95 1018.7
20260903033428 13 153 1.6 1.6 0.00 0.00 0.00 95 1018.5
20260903033118 13 177 0.0 1.6 0.00 0.00 0.00 94 1018.3
20260903033020 14 158 1.6 1.6 0.00 0.00 0.00 94 1018.2
20260903032918 14 177 0.0 1.6 0.00 0.00 0.00 94 1018.1
20260903032818 14 186 0.0 1.6 0.00 0.00 0.00 94 1018.2
20260903032718 14 186 0.0 1.6 0.00 0.00 0.00 94 1018.4
20260903032618 14 185 0.0 1.6 0.00 0.00 0.00 94 1018.4
20260903032553 14 189 0.0 1.6 0.00 0.00 0.00 94 1018.4
20260903032537 14 186 0.0 1.6 0.00 0.00 0.00 94 1018.4
20260903032218 14 181 0.0 1.6 0.00 0.00 0.00 93 1018.5
20260903032146 14 186 0.0 1.6 0.00 0.00 0.00 93 1018.3
20260903032130 14 182 0.0 1.6 0.00 0.00 0.00 93 1018.3
20260903032114 14 190 0.0 1.6 0.00 0.00 0.00 93 1018.7
20260903032058 14 186 0.0 1.6 0.00 0.00 0.00 93 1018.4
20260903032034 14 165 0.0 1.6 0.00 0.00 0.00 93 1018.7
20260903032018 14 191 0.0 0.0 0.00 0.00 0.00 93 1018.8
20260903031218 14 190 0.0 1.6 0.00 0.00 0.00 93 1018.5
20260903031118 14 189 0.0 1.6 0.00 0.00 0.00 93 1018.9
20260903031018 14 189 0.0 1.6 0.00 0.00 0.00 92 1018.8
20260903030918 14 189 0.0 1.6 0.00 0.00 0.00 92 1018.8
20260903030902 14 188 0.0 1.6 0.00 0.00 0.00 92 1018.4
20260903030838 14 191 0.0 1.6 0.00 0.00 0.00 92 1018.7
20260903030518 14 186 0.0 1.6 0.00 0.00 0.00 92 1018.7
20260903030418 14 192 0.0 3.2 0.00 0.00 0.00 92 1018.7
20260903030319 14 192 0.0 3.2 0.00 0.00 0.00 92 1018.7
20260903030309 14 198 0.0 3.2 0.00 0.00 0.00 92 1018.8
20260903030253 14 192 0.0 3.2 0.00 0.00 0.00 92 1018.4
20260903030238 14 183 0.0 3.2 0.00 0.00 0.00 92 1018.9
20260903030222 14 190 0.0 3.2 0.00 0.00 0.00 92 1018.5
20260903030206 14 175 0.0 3.2 0.00 0.00 0.00 92 1018.8
20260903025928 14 198 0.0 3.2 0.00 0.00 0.00 92 1018.8
20260903025618 14 199 0.0 3.2 0.00 0.00 0.00 92 1018.7
20260903025520 14 195 1.6 3.2 0.00 0.00 0.00 92 1018.7
20260903025415 14 170 0.0 1.6 0.00 0.00 0.00 92 1018.8
20260903025316 14 190 0.0 1.6 0.00 0.00 0.00 92 1018.8
20260903025213 15 200 0.0 1.6 0.00 0.00 0.00 92 1018.7
20260903025115 15 192 0.0 1.6 0.00 0.00 0.00 92 1018.8
20260903025014 15 199 0.0 1.6 0.00 0.00 0.00 92 1018.8
20260903024915 15 200 0.0 1.6 0.00 0.00 0.00 92 1018.5
20260903024836 15 199 0.0 1.6 0.00 0.00 0.00 92 1018.8
20260903024811 15 198 0.0 0.0 0.00 0.00 0.00 92 1018.9
20260903024756 15 198 0.0 0.0 0.00 0.00 0.00 92 1018.7
20260903024741 15 198 0.0 0.0 0.00 0.00 0.00 92 1018.5
20260903024725 15 202 0.0 0.0 0.00 0.00 0.00 92 1018.7
20260903024443 15 200 0.0 0.0 0.00 0.00 0.00 92 1018.7
20260903024427 15 197 0.0 4.8 0.00 0.00 0.00 92 1018.9
20260903024412 15 197 0.0 4.8 0.00 0.00 0.00 92 1018.7
20260903024356 15 196 0.0 4.8 0.00 0.00 0.00 92 1018.5
20260903023908 15 196 0.0 4.8 0.00 0.00 0.00 92 1018.7
20260903023852 15 195 0.0 4.8 0.00 0.00 0.00 92 1018.7
20260903023836 15 194 0.0 4.8 0.00 0.00 0.00 92 1018.7
20260903023820 15 194 0.0 4.8 0.00 0.00 0.00 92 1018.9
20260903023334 15 137 0.0 4.8 0.00 0.00 0.00 92 1018.7
20260903023039 14 203 0.0 3.2 0.00 0.00 0.00 97 1018.9
20260903023033 14 170 0.0 4.8 0.00 0.00 0.00 97 1018.8
20260903023027 15 191 0.0 4.8 0.00 0.00 0.00 93 1018.7
20260903023012 15 190 0.0 4.8 0.00 0.00 0.00 93 1018.7
20260903022956 15 146 0.0 4.8 0.00 0.00 0.00 93 1018.7
20260903022723 15 183 0.0 4.8 0.00 0.00 0.00 93 1018.7
20260903022708 15 158 0.0 4.8 0.00 0.00 0.00 93 1018.7
20260903022652 15 28 4.8 4.8 0.00 0.00 0.00 94 1018.7
20260903022636 14 183 0.0 4.8 0.00 0.00 0.00 94 1018.5
20260903022621 14 111 0.0 4.8 0.00 0.00 0.00 94 1018.7
20260903022559 14 189 0.0 4.8 0.00 0.00 0.00 94 1018.7
20260903022543 14 192 0.0 4.8 0.00 0.00 0.00 94 1018.7
20260903022527 14 186 0.0 4.8 0.00 0.00 0.00 94 1018.7
20260903022511 14 139 3.2 4.8 0.00 0.00 0.00 95 1018.4
20260903022226 14 163 0.0 4.8 0.00 0.00 0.00 95 1018.7
20260903022211 14 165 0.0 4.8 0.00 0.00 0.00 96 1018.7
20260903021704 14 170 0.0 4.8 0.00 0.00 0.00 97 1018.8
20260903021219 14 196 0.0 3.2 0.00 0.00 0.00 97 1018.5
20260903020943 14 196 0.0 3.2 0.00 0.00 0.00 97 1018.5
20260903020924 14 203 0.0 3.2 0.00 0.00 0.00 97 1018.9
20260903020614 14 196 0.0 1.6 0.00 0.00 0.00 98 1018.8
20260903020514 14 193 0.0 1.6 0.00 0.00 0.00 98 1018.5
20260903020414 14 196 0.0 1.6 0.00 0.00 0.00 98 1018.8
20260903020314 14 193 0.0 1.6 0.00 0.00 0.00 98 1018.5
20260903020214 14 195 0.0 1.6 0.00 0.00 0.00 98 1018.9
20260903020148 14 196 0.0 1.6 0.00 0.00 0.00 98 1018.5
20260903020134 14 191 0.0 1.6 0.00 0.00 0.00 98 1018.9
20260903020119 14 194 0.0 1.6 0.00 0.00 0.00 98 1018.9
20260903015834 14 196 0.0 1.6 0.00 0.00 0.00 98 1018.7
20260903015513 14 212 1.6 1.6 0.00 0.00 0.00 98 1018.8
20260903015414 13 198 0.0 0.0 0.00 0.00 0.00 98 1018.8
20260903015314 13 196 0.0 0.0 0.00 0.00 0.00 98 1019.1
20260903015214 13 198 0.0 0.0 0.00 0.00 0.00 98 1018.9
20260903015115 13 200 0.0 0.0 0.00 0.00 0.00 99 1018.9
20260903015014 13 204 0.0 0.0 0.00 0.00 0.00 98 1018.9
20260903014931 14 198 0.0 1.6 0.00 0.00 0.00 98 1019.1
20260903014924 13 196 0.0 0.0 0.00 0.00 0.00 98 1019.0
20260903014908 13 196 0.0 0.0 0.00 0.00 0.00 98 1019.1
20260903014844 13 195 0.0 0.0 0.00 0.00 0.00 98 1018.8
20260903014816 13 194 0.0 0.0 0.00 0.00 0.00 98 1019.0
20260903014800 14 196 0.0 0.0 0.00 0.00 0.00 98 1019.0
20260903014316 14 200 0.0 0.0 0.00 0.00 0.00 98 1018.9
20260903014254 14 196 0.0 1.6 0.00 0.00 0.00 98 1019.1
20260903014238 14 194 0.0 1.6 0.00 0.00 0.00 98 1018.9
20260903014222 14 194 0.0 1.6 0.00 0.00 0.00 98 1019.0
20260903014205 14 184 0.0 1.6 0.00 0.00 0.00 98 1018.8
20260903013925 14 198 0.0 1.6 0.00 0.00 0.00 98 1019.1
20260903013615 14 197 0.0 1.6 0.00 0.00 0.00 98 1019.1
20260903013550 14 196 0.0 1.6 0.00 0.00 0.00 98 1019.0
20260903013534 14 196 0.0 1.6 0.00 0.00 0.00 98 1019.0
20260903013214 14 199 0.0 1.6 0.00 0.00 0.00 98 1019.1
20260903013114 14 196 0.0 1.6 0.00 0.00 0.00 99 1019.1
20260903013040 14 195 0.0 0.0 0.00 0.00 0.00 98 1018.7
20260903013030 14 192 0.0 1.6 0.00 0.00 0.00 98 1019.2
20260903013015 13 196 0.0 1.6 0.00 0.00 0.00 98 1019.1
20260903012958 13 197 0.0 1.6 0.00 0.00 0.00 98 1018.9
20260903012726 14 211 0.0 1.6 0.00 0.00 0.00 98 1019.0
20260903012709 14 160 0.0 1.6 0.00 0.00 0.00 98 1019.1
20260903012654 14 187 0.0 0.0 0.00 0.00 0.00 98 1019.1
20260903012638 14 195 0.0 0.0 0.00 0.00 0.00 98 1019.1
20260903012623 14 195 0.0 0.0 0.00 0.00 0.00 98 1018.7
20260903012606 14 195 0.0 0.0 0.00 0.00 0.00 98 1018.7
20260903012131 14 195 0.0 0.0 0.00 0.00 0.00 98 1018.7
20260903012115 14 195 0.0 0.0 0.00 0.00 0.00 98 1018.7
20260903012059 14 195 0.0 0.0 0.00 0.00 0.00 98 1018.7
20260903011836 14 195 0.0 0.0 0.00 0.00 0.00 98 1018.7
20260903011812 14 195 0.0 0.0 0.00 0.00 0.00 98 1018.8
20260903011756 14 195 0.0 0.0 0.00 0.00 0.00 98 1018.5
20260903011741 14 195 0.0 0.0 0.00 0.00 0.00 98 1018.7
20260903011725 14 195 0.0 0.0 0.00 0.00 0.00 98 1018.8
20260903011711 14 195 0.0 0.0 0.00 0.00 0.00 98 1018.4
20260903011647 14 195 0.0 0.0 0.00 0.00 0.00 98 1018.4
20260903011411 14 195 0.0 0.0 0.00 0.00 0.00 98 1018.7
20260903011356 14 195 0.0 0.0 0.00 0.00 0.00 98 1018.7
20260903011340 14 195 0.0 0.0 0.00 0.00 0.00 98 1019.0
20260903011321 14 195 0.0 0.0 0.00 0.00 0.00 98 1018.5
20260903011055 14 195 0.0 0.0 0.00 0.00 0.00 98 1018.7
20260903010335 14 195 0.0 0.0 0.00 0.00 0.00 98 1018.4
20260903010054 14 195 0.0 0.0 0.00 0.00 0.00 98 1018.4
20260903010045 14 195 0.0 0.0 0.00 0.00 0.00 98 1018.5
20260903010031 14 195 0.0 0.0 0.00 0.00 0.00 98 1018.9
20260903010015 14 195 0.0 0.0 0.00 0.00 0.00 98 1018.8
20260903005951 14 195 0.0 0.0 0.00 0.00 0.00 98 1018.8
20260903005716 14 195 0.0 0.0 0.00 0.00 0.00 98 1018.5
20260903005700 14 195 0.0 0.0 0.00 0.00 0.00 98 1018.5
20260903005423 14 195 0.0 0.0 0.00 0.00 0.00 98 1018.4
20260903005114 14 195 0.0 0.0 0.00 0.00 0.00 98 1018.5
20260903005014 14 195 0.0 0.0 0.00 0.00 0.00 98 1018.4
20260903004914 14 195 0.0 0.0 0.00 0.00 0.00 98 1018.7
20260903004814 14 195 0.0 0.0 0.00 0.00 0.00 98 1018.8
20260903004713 14 195 0.0 0.0 0.00 0.00 0.00 98 1018.7
20260903004405 14 195 0.0 0.0 0.00 0.00 0.00 98 1018.4
20260903004305 14 195 0.0 0.0 0.00 0.00 0.00 98 1018.7
20260903004213 14 195 0.0 0.0 0.00 0.00 0.00 98 1018.7
20260903004205 14 195 0.0 0.0 0.00 0.00 0.00 98 1018.5
20260903004105 14 195 0.0 0.0 0.00 0.00 0.00 98 1018.5
20260903004006 14 195 0.0 0.0 0.00 0.00 0.00 98 1018.3
20260903003906 14 195 0.0 0.0 0.00 0.00 0.00 98 1018.7
20260903003750 14 195 0.0 0.0 0.00 0.00 0.00 98 1018.5
20260903003743 14 195 0.0 0.0 0.00 0.00 0.00 98 1018.4
20260903003728 14 195 0.0 0.0 0.00 0.00 0.00 98 1018.7
20260903003405 14 195 0.0 0.0 0.00 0.00 0.00 98 1018.4
20260903003307 14 195 0.0 0.0 0.00 0.00 0.00 98 1018.7
20260903003213 14 195 0.0 0.0 0.00 0.00 0.00 98 1018.7
20260903003205 14 195 0.0 0.0 0.00 0.00 0.00 98 1018.9
20260903003141 14 195 0.0 0.0 0.00 0.00 0.00 98 1018.8
20260903003133 14 195 0.0 0.0 0.00 0.00 0.00 98 1018.7
20260903003117 14 195 0.0 0.0 0.00 0.00 0.00 98 1018.5
20260903003101 14 195 0.0 0.0 0.00 0.00 0.00 98 1018.7
20260903003029 14 195 0.0 0.0 0.00 0.00 0.00 98 1018.9
20260903003022 14 195 0.0 0.0 0.00 0.00 0.00 98 1018.8
20260903002746 14 195 0.0 0.0 0.00 0.00 0.00 98 1018.5
20260903002730 14 195 0.0 0.0 0.00 0.00 0.00 98 1018.5
20260903002454 14 195 0.0 0.0 0.00 0.00 0.00 98 1018.8
20260903002447 14 195 0.0 0.0 0.00 0.00 0.00 98 1018.7
20260903002432 14 195 0.0 0.0 0.00 0.00 0.00 98 1018.7
20260903001936 14 195 0.0 0.0 0.00 0.00 0.00 98 1018.8
20260903001705 14 195 0.0 0.0 0.00 0.00 0.00 98 1018.8
20260903001605 14 195 0.0 0.0 0.00 0.00 0.00 98 1018.8
20260903001506 14 195 0.0 0.0 0.00 0.00 0.00 98 1018.8
20260903001405 14 195 0.0 0.0 0.00 0.00 0.00 98 1019.0
20260903001305 14 195 0.0 0.0 0.00 0.00 0.00 98 1018.7
20260903001213 14 195 0.0 0.0 0.00 0.00 0.00 98 1018.7
20260903001205 14 195 0.0 0.0 0.00 0.00 0.00 98 1018.7
20260903001105 14 195 0.0 0.0 0.00 0.00 0.00 98 1018.9
20260903001005 14 195 0.0 0.0 0.00 0.00 0.00 98 1018.7
20260903000905 14 195 0.0 0.0 0.00 0.00 0.00 98 1018.8
20260903000805 14 195 0.0 0.0 0.00 0.00 0.00 97 1018.7
20260903000713 14 195 0.0 0.0 0.00 0.00 0.00 97 1018.7
20260903000705 14 195 0.0 0.0 0.00 0.00 0.00 97 1018.9
20260903000642 14 195 0.0 0.0 0.00 0.00 0.00 97 1019.0
20260903000627 14 195 0.0 0.0 0.00 0.00 0.00 97 1018.8
20260903000611 14 195 0.0 0.0 0.00 0.00 0.00 97 1018.8
20260903000540 14 202 0.0 0.0 0.00 0.00 0.00 97 1018.8
20260903000520 14 195 0.0 0.0 0.00 0.00 0.00 97 1018.5
20260903000025 14 195 0.0 0.0 0.00 0.00 0.00 97 1018.8
20260902235713 14 195 0.0 0.0 0.00 0.00 0.00 97 1018.9
20260902235707 14 195 0.0 0.0 0.00 0.00 0.00 97 1019.0
20260902235606 14 195 0.0 0.0 0.00 0.00 0.00 97 1019.0
20260902235541 14 195 0.0 0.0 0.00 0.00 0.00 97 1018.8
20260902235526 14 195 0.0 0.0 0.00 0.00 0.00 97 1018.9
20260902235213 14 195 0.0 0.0 0.00 0.00 0.00 97 1019.0
20260902235205 14 195 0.0 0.0 0.00 0.00 0.00 97 1018.8
20260902235105 14 195 0.0 0.0 0.00 0.00 0.00 97 1019.1
20260902235004 14 195 0.0 0.0 0.00 0.00 0.00 97 1019.1
20260902234936 14 195 0.0 0.0 0.00 0.00 0.00 97 1019.0
20260902234900 14 195 0.0 0.0 0.00 0.00 0.00 97 1019.0
20260902234854 14 195 0.0 0.0 0.00 0.00 0.00 97 1018.8
20260902234838 14 195 0.0 0.0 0.00 0.00 0.00 97 1018.9
20260902234822 14 195 0.0 0.0 0.00 0.00 0.00 97 1019.1
20260902234530 14 195 0.0 0.0 0.00 0.00 0.00 97 1019.1
20260902234523 14 195 0.0 0.0 0.00 0.00 0.00 97 1018.9
20260902234026 14 195 0.0 0.0 0.00 0.00 0.00 97 1018.9
20260902233953 14 195 0.0 0.0 0.00 0.00 0.00 97 1019.0
20260902233947 14 195 0.0 0.0 0.00 0.00 0.00 97 1019.0
20260902233405 14 195 0.0 0.0 0.00 0.00 0.00 97 1018.7
20260902233353 14 202 0.0 0.0 0.00 0.00 0.00 98 1018.9
20260902233332 14 195 0.0 0.0 0.00 0.00 0.00 97 1018.9
20260902233326 14 195 0.0 0.0 0.00 0.00 0.00 98 1018.7
20260902233309 14 195 0.0 0.0 0.00 0.00 0.00 97 1018.8
20260902233043 14 195 0.0 0.0 0.00 0.00 0.00 98 1019.0
20260902233027 14 195 0.0 0.0 0.00 0.00 0.00 98 1019.0
20260902233012 14 202 0.0 0.0 0.00 0.00 0.00 98 1018.8
20260902232953 14 195 0.0 0.0 0.00 0.00 0.00 98 1018.8
20260902232946 14 195 0.0 0.0 0.00 0.00 0.00 98 1018.9
20260902232931 14 195 0.0 0.0 0.00 0.00 0.00 98 1019.1
20260902232914 14 202 0.0 0.0 0.00 0.00 0.00 98 1019.0
20260902232205 14 202 0.0 0.0 0.00 0.00 0.00 98 1018.9
20260902232105 14 202 0.0 0.0 0.00 0.00 0.00 98 1018.7
20260902232005 14 198 0.0 0.0 0.00 0.00 0.00 98 1019.0
20260902231907 14 198 0.0 0.0 0.00 0.00 0.00 98 1019.0
20260902231851 14 198 0.0 0.0 0.00 0.00 0.00 98 1019.1
20260902231833 14 202 0.0 0.0 0.00 0.00 0.00 98 1019.1
20260902231827 14 202 0.0 0.0 0.00 0.00 0.00 98 1019.0
20260902231454 14 195 0.0 0.0 0.00 0.00 0.00 98 1019.0
20260902231354 14 195 0.0 0.0 0.00 0.00 0.00 98 1019.1
20260902231253 14 195 0.0 0.0 0.00 0.00 0.00 98 1019.0
20260902231213 14 195 0.0 0.0 0.00 0.00 0.00 98 1019.0
20260902231153 14 195 0.0 0.0 0.00 0.00 0.00 98 1019.0
20260902231054 14 195 0.0 0.0 0.00 0.00 0.00 98 1018.9
20260902231026 13 195 0.0 0.0 0.00 0.00 0.00 98 1019.1
20260902231017 14 195 0.0 0.0 0.00 0.00 0.00 98 1019.1
20260902231002 14 195 0.0 0.0 0.00 0.00 0.00 99 1018.9
20260902230930 13 195 0.0 0.0 0.00 0.00 0.00 99 1019.0
20260902230922 13 195 0.0 0.0 0.00 0.00 0.00 99 1019.3
20260902230647 13 195 0.0 0.0 0.00 0.00 0.00 98 1019.2
20260902230631 13 195 0.0 0.0 0.00 0.00 0.00 98 1019.0
20260902230615 13 195 0.0 0.0 0.00 0.00 0.00 98 1019.1
20260902230348 13 195 0.0 0.0 0.00 0.00 0.00 98 1019.0
20260902230112 13 195 0.0 0.0 0.00 0.00 0.00 98 1019.0
20260902225755 13 195 0.0 0.0 0.00 0.00 0.00 98 1019.1
20260902225714 13 195 0.0 0.0 0.00 0.00 0.00 98 1019.1
20260902225655 13 195 0.0 0.0 0.00 0.00 0.00 98 1019.2
20260902225553 13 202 0.0 0.0 0.00 0.00 0.00 98 1019.1
20260902225531 13 202 0.0 0.0 0.00 0.00 0.00 98 1019.0
20260902225514 13 198 0.0 0.0 0.00 0.00 0.00 98 1019.2
20260902225214 13 195 0.0 0.0 0.00 0.00 0.00 98 1019.2
20260902225153 13 195 0.0 0.0 0.00 0.00 0.00 98 1019.0
20260902225052 13 195 0.0 0.0 0.00 0.00 0.00 98 1019.1
20260902224953 13 195 0.0 0.0 0.00 0.00 0.00 98 1019.1
20260902224857 13 195 0.0 0.0 0.00 0.00 0.00 98 1019.1
20260902224845 13 195 0.0 0.0 0.00 0.00 0.00 98 1019.1
20260902224819 13 195 0.0 0.0 0.00 0.00 0.00 98 1019.1
20260902224809 13 195 0.0 0.0 0.00 0.00 0.00 98 1019.1
20260902224748 13 195 0.0 0.0 0.00 0.00 0.00 98 1019.0
20260902224733 13 195 0.0 0.0 0.00 0.00 0.00 98 1019.3
20260902224716 13 195 0.0 0.0 0.00 0.00 0.00 98 1019.0
20260902224700 13 195 0.0 0.0 0.00 0.00 0.00 98 1019.1
20260902224433 13 195 0.0 0.0 0.00 0.00 0.00 98 1019.2
20260902224418 13 195 0.0 0.0 0.00 0.00 0.00 98 1019.1
20260902223905 13 195 0.0 0.0 0.00 0.00 0.00 97 1019.3
20260902223554 13 195 0.0 0.0 0.00 0.00 0.00 97 1019.1
20260902223453 13 195 0.0 0.0 0.00 0.00 0.00 97 1019.3
20260902223354 14 195 0.0 0.0 0.00 0.00 0.00 97 1019.1
20260902223238 14 195 0.0 0.0 0.00 0.00 0.00 97 1019.2
20260902223230 14 195 0.0 0.0 0.00 0.00 0.00 97 1019.3
20260902223214 14 195 0.0 0.0 0.00 0.00 0.00 97 1019.1
20260902222853 14 195 0.0 0.0 0.00 0.00 0.00 97 1019.2
20260902222805 14 195 0.0 0.0 0.00 0.00 0.00 96 1019.2
20260902222744 14 195 0.0 0.0 0.00 0.00 0.00 97 1019.1
20260902222735 14 195 0.0 0.0 0.00 0.00 0.00 97 1019.0
20260902222721 14 195 0.0 0.0 0.00 0.00 0.00 97 1019.1
20260902222705 14 195 0.0 0.0 0.00 0.00 0.00 97 1019.3
20260902222650 14 196 0.0 0.0 0.00 0.00 0.00 97 1019.3
20260902222414 14 196 0.0 0.0 0.00 0.00 0.00 97 1019.1
20260902222406 14 195 0.0 0.0 0.00 0.00 0.00 97 1018.9
20260902222350 14 195 0.0 0.0 0.00 0.00 0.00 97 1019.1
20260902222335 14 196 0.0 0.0 0.00 0.00 0.00 97 1019.2
20260902222320 14 196 0.0 0.0 0.00 0.00 0.00 97 1019.0
20260902222245 14 195 0.0 0.0 0.00 0.00 0.00 97 1019.2
20260902222237 14 195 0.0 0.0 0.00 0.00 0.00 97 1019.0
20260902222222 14 195 0.0 0.0 0.00 0.00 0.00 97 1019.2
20260902222206 14 195 0.0 0.0 0.00 0.00 0.00 97 1019.2
20260902222150 14 195 0.0 0.0 0.00 0.00 0.00 97 1018.9
20260902222122 14 195 0.0 0.0 0.00 0.00 0.00 97 1019.1
20260902222113 14 195 0.0 0.0 0.00 0.00 0.00 97 1019.0
20260902222058 14 195 0.0 0.0 0.00 0.00 0.00 97 1019.1
20260902221820 14 202 0.0 0.0 0.00 0.00 0.00 96 1019.0
20260902221750 14 195 0.0 0.0 0.00 0.00 0.00 96 1019.3
20260902221521 14 195 0.0 0.0 0.00 0.00 0.00 96 1019.1
20260902220809 14 195 0.0 0.0 0.00 0.00 0.00 96 1019.0
20260902220800 14 195 0.0 0.0 0.00 0.00 0.00 96 1019.2
20260902220744 14 195 0.0 0.0 0.00 0.00 0.00 96 1019.1
20260902220510 14 195 0.0 0.0 0.00 0.00 0.00 96 1019.3
20260902220021 14 195 0.0 0.0 0.00 0.00 0.00 96 1019.1
20260902220005 14 196 0.0 0.0 0.00 0.00 0.00 96 1019.2
20260902215948 14 196 0.0 0.0 0.00 0.00 0.00 95 1019.1
20260902215933 15 195 0.0 0.0 0.00 0.00 0.00 95 1019.3
20260902215701 15 196 0.0 0.0 0.00 0.00 0.00 95 1018.9
20260902215211 15 196 0.0 0.0 0.00 0.00 0.00 95 1019.1
20260902214714 15 196 0.0 0.0 0.00 0.00 0.00 96 1019.3
20260902214629 15 196 0.0 0.0 0.00 0.00 0.00 96 1019.1
20260902214528 15 196 0.0 0.0 0.00 0.00 0.00 96 1019.1
20260902214429 15 196 0.0 0.0 0.00 0.00 0.00 96 1019.1
20260902214329 15 196 0.0 1.6 0.00 0.00 0.00 96 1018.9
20260902214213 15 196 0.0 1.6 0.00 0.00 0.00 96 1019.1
20260902214129 15 196 0.0 1.6 0.00 0.00 0.00 96 1018.9
20260902214016 15 192 0.0 1.6 0.00 0.00 0.00 96 1018.9
20260902213951 14 198 0.0 0.0 0.00 0.00 0.00 98 1018.9
20260902213946 14 196 0.0 0.0 0.00 0.00 0.00 97 1019.1
20260902213941 15 196 0.0 0.0 0.00 0.00 0.00 97 1019.1
20260902213935 15 186 0.0 1.6 0.00 0.00 0.00 97 1019.1
20260902213918 15 188 0.0 1.6 0.00 0.00 0.00 97 1019.0
20260902213854 15 189 0.0 1.6 0.00 0.00 0.00 97 1019.1
20260902213839 15 181 0.0 1.6 0.00 0.00 0.00 97 1019.0
20260902213823 15 176 0.0 1.6 0.00 0.00 0.00 98 1019.2
20260902213547 14 189 0.0 0.0 0.00 0.00 0.00 98 1019.1
20260902213529 14 198 0.0 0.0 0.00 0.00 0.00 98 1018.9
20260902213303 14 195 0.0 0.0 0.00 0.00 0.00 98 1018.9
20260902213248 14 202 0.0 0.0 0.00 0.00 0.00 98 1019.0
20260902213232 14 196 0.0 0.0 0.00 0.00 0.00 98 1019.0
20260902213217 14 196 0.0 0.0 0.00 0.00 0.00 97 1018.9
20260902212729 14 196 0.0 0.0 0.00 0.00 0.00 97 1019.1
20260902212713 14 196 0.0 0.0 0.00 0.00 0.00 97 1019.1
20260902212656 14 196 0.0 0.0 0.00 0.00 0.00 97 1018.8
20260902212641 14 196 0.0 0.0 0.00 0.00 0.00 97 1019.0
20260902212623 15 196 0.0 0.0 0.00 0.00 0.00 97 1019.1
20260902212357 15 196 0.0 0.0 0.00 0.00 0.00 97 1018.9
20260902211816 15 196 0.0 0.0 0.00 0.00 0.00 97 1019.0
20260902211717 15 196 0.0 0.0 0.00 0.00 0.00 97 1019.0
20260902211605 15 196 0.0 0.0 0.00 0.00 0.00 97 1019.0
20260902211505 15 196 0.0 0.0 0.00 0.00 0.00 97 1019.0
20260902211405 15 196 0.0 0.0 0.00 0.00 0.00 97 1019.1
20260902211305 15 196 0.0 0.0 0.00 0.00 0.00 96 1019.1
20260902211226 15 196 0.0 0.0 0.00 0.00 0.00 96 1018.9
20260902211206 15 196 0.0 0.0 0.00 0.00 0.00 96 1019.0
20260902211105 15 196 0.0 0.0 0.00 0.00 0.00 96 1019.0
20260902211007 15 196 0.0 0.0 0.00 0.00 0.00 96 1019.1
20260902210904 15 196 0.0 0.0 0.00 0.00 0.00 96 1019.1
20260902210805 15 196 0.0 0.0 0.00 0.00 0.00 96 1018.9
20260902210734 15 196 0.0 0.0 0.00 0.00 0.00 96 1018.9
20260902210728 15 196 0.0 0.0 0.00 0.00 0.00 96 1019.0
20260902210713 15 196 0.0 0.0 0.00 0.00 0.00 96 1019.0
20260902210354 15 196 0.0 0.0 0.00 0.00 0.00 96 1019.2
20260902210225 15 196 0.0 0.0 0.00 0.00 0.00 96 1019.1
20260902210154 15 196 0.0 0.0 0.00 0.00 0.00 96 1019.1
20260902210053 15 196 0.0 0.0 0.00 0.00 0.00 96 1019.1
20260902205953 15 196 0.0 0.0 0.00 0.00 0.00 96 1018.9
20260902205908 15 196 0.0 0.0 0.00 0.00 0.00 96 1019.1
20260902205903 15 196 0.0 0.0 0.00 0.00 0.00 95 1018.9
20260902205858 15 196 0.0 0.0 0.00 0.00 0.00 96 1019.0
20260902205826 15 196 0.0 0.0 0.00 0.00 0.00 96 1019.0
20260902205818 15 196 0.0 0.0 0.00 0.00 0.00 96 1018.8
20260902205802 15 196 0.0 0.0 0.00 0.00 0.00 96 1019.1
20260902205746 15 196 0.0 0.0 0.00 0.00 0.00 96 1018.8
20260902205731 15 196 0.0 0.0 0.00 0.00 0.00 96 1018.9
20260902205244 15 196 0.0 0.0 0.00 0.00 0.00 96 1019.0
20260902205229 15 196 0.0 0.0 0.00 0.00 0.00 96 1019.1
20260902205213 15 196 0.0 0.0 0.00 0.00 0.00 96 1018.9
20260902205157 15 196 0.0 0.0 0.00 0.00 0.00 95 1019.1
20260902204654 15 196 0.0 0.0 0.00 0.00 0.00 95 1019.0
20260902204554 15 196 0.0 0.0 0.00 0.00 0.00 95 1019.0
20260902204453 15 196 0.0 0.0 0.00 0.00 0.00 95 1019.0
20260902204353 15 196 0.0 0.0 0.00 0.00 0.00 95 1019.0
20260902204238 15 196 0.0 0.0 0.00 0.00 0.00 95 1018.9
20260902204230 15 196 0.0 0.0 0.00 0.00 0.00 95 1019.1
20260902204214 15 196 0.0 0.0 0.00 0.00 0.00 95 1019.1
20260902203853 15 196 0.0 0.0 0.00 0.00 0.00 95 1018.9
20260902203736 15 196 0.0 0.0 0.00 0.00 0.00 93 1019.0
20260902203726 15 196 0.0 0.0 0.00 0.00 0.00 95 1018.9
20260902203718 15 196 0.0 0.0 0.00 0.00 0.00 95 1018.9
20260902203702 15 196 0.0 0.0 0.00 0.00 0.00 95 1018.9
20260902203647 15 196 0.0 0.0 0.00 0.00 0.00 95 1019.0
20260902203357 15 196 0.0 0.0 0.00 0.00 0.00 95 1019.0
20260902203349 15 196 0.0 0.0 0.00 0.00 0.00 94 1019.2
20260902203334 15 196 0.0 0.0 0.00 0.00 0.00 94 1019.0
20260902203318 15 196 0.0 0.0 0.00 0.00 0.00 94 1019.1
20260902203302 15 196 0.0 0.0 0.00 0.00 0.00 94 1019.0
20260902203247 15 196 0.0 0.0 0.00 0.00 0.00 94 1019.0
20260902202529 15 196 0.0 0.0 0.00 0.00 0.00 93 1019.0
20260902202515 16 196 0.0 0.0 0.00 0.00 0.00 93 1019.0
20260902202214 16 196 0.0 0.0 0.00 0.00 0.00 93 1019.1
20260902202152 16 196 0.0 0.0 0.00 0.00 0.00 93 1018.9
20260902202054 16 196 0.0 0.0 0.00 0.00 0.00 93 1019.1
20260902201953 16 196 0.0 0.0 0.00 0.00 0.00 93 1019.1
20260902201853 16 196 0.0 0.0 0.00 0.00 0.00 93 1018.9
20260902201753 16 196 0.0 0.0 0.00 0.00 0.00 93 1019.0
20260902201714 16 196 0.0 0.0 0.00 0.00 0.00 93 1019.0
20260902201654 16 196 0.0 0.0 0.00 0.00 0.00 93 1019.1
20260902201553 16 196 0.0 0.0 0.00 0.00 0.00 93 1019.0
20260902201453 16 196 0.0 0.0 0.00 0.00 0.00 93 1019.1
20260902201352 16 196 0.0 0.0 0.00 0.00 0.00 93 1019.2
20260902201226 16 196 0.0 0.0 0.00 0.00 0.00 93 1019.1
20260902201153 16 196 0.0 0.0 0.00 0.00 0.00 93 1018.9
20260902201053 16 196 0.0 0.0 0.00 0.00 0.00 93 1019.1
20260902200955 16 196 0.0 0.0 0.00 0.00 0.00 93 1018.9
20260902200854 16 196 0.0 0.0 0.00 0.00 0.00 93 1018.9
20260902200744 16 196 0.0 0.0 0.00 0.00 0.00 92 1019.1
20260902200734 16 196 0.0 0.0 0.00 0.00 0.00 93 1019.0
20260902200726 16 196 0.0 0.0 0.00 0.00 0.00 93 1018.9
20260902200711 16 196 0.0 0.0 0.00 0.00 0.00 93 1019.0
20260902200655 16 196 0.0 0.0 0.00 0.00 0.00 93 1018.9
20260902200641 16 196 0.0 0.0 0.00 0.00 0.00 93 1019.0
20260902200625 16 196 0.0 0.0 0.00 0.00 0.00 93 1019.1
20260902200054 16 196 0.0 0.0 0.00 0.00 0.00 92 1018.9
20260902195953 16 196 0.0 0.0 0.00 0.00 0.00 92 1019.1
20260902195853 16 196 0.0 0.0 0.00 0.00 0.00 92 1019.1
20260902195754 16 196 0.0 0.0 0.00 0.00 0.00 92 1018.9
20260902195734 16 198 0.0 0.0 0.00 0.00 0.00 90 1019.1
20260902195724 16 196 0.0 0.0 0.00 0.00 0.00 92 1018.9
20260902195716 16 196 0.0 0.0 0.00 0.00 0.00 92 1018.9
20260902195700 16 196 0.0 0.0 0.00 0.00 0.00 92 1019.0
20260902195645 16 196 0.0 0.0 0.00 0.00 0.00 91 1019.1
20260902195417 16 196 0.0 0.0 0.00 0.00 0.00 91 1019.1
20260902195348 16 196 0.0 0.0 0.00 0.00 0.00 91 1019.0
20260902195339 16 196 0.0 0.0 0.00 0.00 0.00 91 1018.9
20260902195319 16 196 0.0 0.0 0.00 0.00 0.00 91 1019.0
20260902195306 16 196 0.0 0.0 0.00 0.00 0.00 90 1019.1
20260902195249 16 196 0.0 0.0 0.00 0.00 0.00 90 1019.1
20260902195219 16 196 0.0 0.0 0.00 0.00 0.00 90 1018.9
20260902194948 16 196 0.0 0.0 0.00 0.00 0.00 90 1019.0
20260902194232 16 196 0.0 0.0 0.00 0.00 0.00 90 1019.0
20260902194222 16 196 0.0 0.0 0.00 0.00 0.00 90 1019.0
20260902194206 16 196 0.0 0.0 0.00 0.00 0.00 90 1019.0
20260902194150 16 196 0.0 0.0 0.00 0.00 0.00 90 1019.1
20260902194134 16 196 0.0 0.0 0.00 0.00 0.00 90 1018.9
20260902193905 16 196 0.0 0.0 0.00 0.00 0.00 90 1019.1
20260902193630 16 196 0.0 0.0 0.00 0.00 0.00 90 1019.2
20260902193614 16 196 0.0 0.0 0.00 0.00 0.00 90 1019.2
20260902193349 16 196 0.0 0.0 0.00 0.00 0.00 90 1019.0
20260902193325 16 196 0.0 0.0 0.00 0.00 0.00 90 1019.0
20260902193309 16 196 0.0 0.0 0.00 0.00 0.00 90 1018.9
20260902193253 16 195 0.0 0.0 0.00 0.00 0.00 90 1019.2
20260902193237 16 201 0.0 0.0 0.00 0.00 0.00 90 1019.0
20260902193223 16 198 0.0 0.0 0.00 0.00 0.00 90 1019.2
20260902193203 16 198 0.0 0.0 0.00 0.00 0.00 90 1019.1
20260902192924 16 201 0.0 0.0 0.00 0.00 0.00 90 1019.1
20260902192908 16 201 0.0 0.0 0.00 0.00 0.00 90 1019.3
20260902192852 16 200 0.0 0.0 0.00 0.00 0.00 90 1019.3
20260902192836 16 200 0.0 0.0 0.00 0.00 0.00 89 1019.0
20260902192609 16 198 0.0 0.0 0.00 0.00 0.00 89 1019.0
20260902192552 16 196 0.0 0.0 0.00 0.00 0.00 90 1019.1
20260902192537 16 196 0.0 0.0 0.00 0.00 0.00 89 1019.1
20260902192521 16 196 0.0 0.0 0.00 0.00 0.00 89 1019.1
20260902192237 17 197 0.0 0.0 0.00 0.00 0.00 89 1019.1
20260902192221 17 197 0.0 0.0 0.00 0.00 0.00 89 1019.1
20260902191945 17 196 0.0 0.0 0.00 0.00 0.00 88 1019.1
20260902191238 17 196 0.0 0.0 0.00 0.00 0.00 88 1019.1
20260902190917 17 194 0.0 0.0 0.00 0.00 0.00 88 1019.0
20260902190851 17 194 0.0 0.0 0.00 0.00 0.00 88 1018.9
20260902190827 17 194 0.0 0.0 0.00 0.00 0.00 87 1019.2